GEFSGL_500_meanwind_054.txt.gz
Wind_Speed
23 23 24 23 22 21 20 19 19 18 17 16 16 16 17 18 19 20 22 24 27 30 33 37 40 43 46 48 49 50 50 49 48 46 47 46 46 45 44 43 42 41 41
23 23 24 24 24 23 22 21 20 20 20 19 19 18 19 19 20 20 22 24 25 28 30 33 35 39 42 45 47 49 50 49 48 48 48 47 46 46 46 44 43 42 41
22 23 23 24 24 23 23 23 23 22 22 21 21 20 20 21 21 21 22 23 25 26 28 30 32 35 38 41 44 46 49 50 49 48 49 48 48 47 47 45 43 42 42
22 23 23 24 24 24 24 25 24 24 24 24 22 22 22 22 22 22 22 22 23 24 26 29 31 32 35 37 40 43 45 47 49 49 48 48 48 48 47 46 44 42 42
22 23 23 24 25 25 25 25 26 26 26 25 24 23 23 23 22 22 22 22 22 23 24 26 28 30 32 34 37 40 42 45 46 47 48 48 48 48 47 47 46 44 44
22 23 24 24 25 25 26 26 27 27 27 27 26 25 24 24 23 22 22 21 21 22 23 25 26 28 29 30 33 36 39 42 43 44 45 46 46 46 47 47 46 46 44
23 23 24 24 25 26 26 26 27 28 28 29 28 26 26 25 24 23 22 20 19 19 20 22 24 24 26 27 29 31 34 37 41 42 43 43 44 44 46 46 46 45 44
23 23 24 24 25 26 27 27 27 28 29 29 29 28 28 27 26 25 22 19 17 16 16 17 19 21 23 24 25 26 29 32 35 38 39 40 42 43 43 43 44 45 45
23 24 24 25 25 26 26 27 28 28 29 29 30 30 29 29 28 25 22 19 15 13 11 12 14 16 18 19 19 21 23 26 29 32 34 35 37 38 40 42 42 43 43
24 24 24 25 25 26 26 27 27 28 28 29 30 30 30 30 29 27 23 19 15 11 8 7 9 11 13 14 16 17 20 22 24 26 29 31 32 34 36 37 39 40 40
24 24 25 25 25 25 26 26 27 28 28 28 29 29 30 29 28 27 24 21 17 12 7 5 4 6 9 11 14 15 17 19 20 23 25 27 29 30 32 34 35 36 36
24 24 25 25 25 25 26 26 26 27 27 27 28 28 28 28 28 26 24 21 18 13 9 5 3 2 5 8 11 13 15 17 19 20 23 24 25 27 29 30 31 32 32
24 24 25 25 25 25 25 26 26 26 26 27 27 27 27 27 26 25 23 21 18 15 10 7 4 2 2 5 8 10 12 14 16 18 20 21 23 24 26 28 29 30 30
25 25 25 25 25 25 25 26 26 26 26 26 26 25 25 25 24 23 22 20 18 15 12 8 5 4 2 3 6 8 10 11 14 16 17 19 20 22 24 25 26 27 26
26 26 26 26 25 25 25 25 25 25 25 25 25 24 24 23 23 22 21 19 17 15 12 9 6 5 3 3 4 7 9 10 11 13 16 17 19 20 21 22 24 25 25
28 28 27 27 27 26 26 26 26 25 25 25 24 24 23 22 21 20 19 18 16 14 12 10 8 5 4 3 3 5 7 9 11 12 14 15 17 18 19 20 22 22 23
30 30 30 29 29 28 27 27 26 26 25 25 24 23 22 22 21 19 18 17 15 14 12 10 8 6 4 3 3 3 5 8 10 11 13 15 16 17 19 20 21 21 22
32 32 32 31 31 30 30 29 28 27 26 26 25 24 23 22 21 19 18 16 15 13 11 10 8 6 4 4 3 3 4 6 8 10 12 14 15 16 18 19 19 20 21
34 34 34 33 33 33 32 32 31 30 29 28 27 25 24 23 22 20 19 17 15 13 11 9 8 6 5 4 4 4 5 6 7 9 12 13 15 16 18 18 19 20 20
35 35 35 34 34 35 35 34 34 33 32 31 30 29 27 25 24 22 21 19 17 15 12 10 9 7 7 6 6 6 6 7 8 9 11 13 15 16 17 18 18 19 19
36 36 36 36 36 36 36 37 37 36 35 35 34 33 31 29 27 25 24 22 20 18 15 13 11 10 9 9 8 8 8 9 9 9 10 12 14 16 17 18 18 19 20
37 37 37 37 37 37 38 38 39 39 39 39 38 37 35 33 31 30 28 26 24 22 20 17 15 14 13 12 12 11 11 12 12 12 12 13 14 15 16 17 18 18 19
39 39 39 39 40 40 40 41 41 41 42 42 42 42 40 39 37 35 33 31 29 27 25 23 20 19 17 16 16 15 14 14 14 15 15 15 16 16 17 18 18 19 19
42 42 43 43 44 44 44 44 45 45 45 46 46 46 46 44 43 41 39 37 34 32 30 29 26 24 22 21 20 19 19 18 18 18 18 18 18 18 19 19 20 20 21
45 46 46 47 48 48 48 49 49 49 50 50 50 51 51 50 49 47 45 43 40 38 36 34 32 30 28 26 25 23 23 22 22 22 21 21 21 21 21 21 21 21 21
48 49 50 51 52 52 52 53 53 54 54 55 55 55 56 55 55 53 52 50 47 44 42 40 38 36 34 32 30 29 27 26 26 25 25 25 24 24 24 23 23 23 23

GEFSGL_500_meanwind_060.txt.gz
Wind_Speed
22 22 23 23 23 23 23 23 23 23 22 21 21 19 17 17 16 16 17 18 20 22 24 26 28 31 33 35 37 39 41 43 43 42 42 43 43 43 43 44 43 43 42
21 22 22 22 22 23 23 23 24 23 23 23 22 21 20 19 18 18 18 19 21 23 24 26 28 30 32 34 35 37 39 41 42 43 44 44 44 44 43 44 44 43 43
20 21 21 22 22 22 23 23 24 24 24 24 23 22 22 21 20 20 20 20 21 23 24 25 27 29 31 33 34 36 38 39 40 42 43 45 45 45 44 44 45 43 44
20 21 21 21 21 22 22 23 24 24 24 25 25 24 23 23 22 22 21 22 22 22 23 23 25 27 29 31 33 35 36 37 38 40 41 43 45 45 45 45 44 44 44
21 21 21 21 22 22 23 23 24 24 24 25 25 25 25 25 25 24 24 23 22 21 21 21 22 24 26 28 31 33 34 35 37 38 39 41 42 44 44 44 44 44 44
21 21 21 22 22 22 22 23 24 24 24 25 25 26 26 26 26 26 25 24 22 21 20 20 20 20 22 24 27 29 31 33 34 35 37 38 40 41 43 43 43 43 43
21 21 22 22 22 22 23 23 24 24 25 25 25 26 27 27 28 27 26 24 23 21 20 19 18 17 18 20 22 25 27 30 32 33 34 36 37 38 40 41 42 42 42
22 22 22 22 23 23 23 23 24 24 25 25 25 26 27 27 28 28 27 25 23 22 20 19 17 15 15 15 18 21 23 26 28 30 32 34 35 36 38 39 39 40 40
23 23 23 23 23 23 23 24 24 24 25 25 26 26 26 27 27 27 27 25 24 23 21 19 17 15 13 12 13 15 18 21 23 26 29 31 33 34 36 37 38 39 40
25 25 25 25 25 25 24 24 24 25 25 25 25 26 26 26 26 26 26 25 24 23 22 20 17 15 13 11 10 11 12 15 18 21 24 26 29 32 34 35 36 37 38
26 26 26 26 26 26 26 26 26 25 25 25 25 26 26 26 26 26 25 25 24 23 22 21 19 16 13 11 10 9 9 11 13 15 19 22 25 28 31 33 34 36 36
28 28 28 28 28 27 27 27 27 26 26 26 26 26 26 25 25 25 24 24 24 23 22 20 19 17 14 12 11 10 9 9 11 12 15 18 22 25 27 29 31 33 33
30 30 30 29 29 29 28 28 27 27 27 26 26 26 25 25 25 25 24 24 24 23 22 20 19 17 15 13 12 11 11 10 10 11 13 14 18 21 24 26 28 29 31
32 32 31 31 30 30 29 29 29 29 28 27 27 26 26 25 25 24 24 23 23 22 22 21 19 17 16 14 13 12 12 12 11 11 12 13 15 18 20 23 25 27 28
34 33 33 32 32 31 31 31 30 30 30 29 28 28 27 26 26 25 24 23 23 22 21 20 19 18 17 15 14 13 12 12 11 11 11 12 13 15 17 19 21 24 25
34 33 33 33 32 32 31 31 31 31 31 31 31 30 29 28 27 26 25 24 23 23 22 21 20 19 18 16 15 14 13 12 12 12 12 12 13 14 16 17 18 19 22
35 33 33 32 32 32 32 31 30 30 31 31 32 32 31 30 29 28 27 26 25 23 22 21 21 20 19 18 16 15 14 13 12 12 12 12 12 12 13 15 16 17 19
35 33 32 31 31 31 31 31 31 31 30 30 31 32 32 32 31 30 29 28 27 25 24 23 22 21 20 19 18 17 16 15 14 13 13 12 12 13 14 15 16 16 17
33 32 31 31 31 31 31 31 32 32 32 32 32 32 32 33 33 33 32 31 30 29 27 26 24 23 22 20 19 18 18 17 16 14 14 14 14 13 13 14 15 15 16
33 32 32 32 32 32 32 32 33 33 33 33 34 34 34 34 34 34 35 34 34 33 31 29 28 26 25 24 22 21 20 19 18 17 16 15 15 15 15 15 16 16 16
34 34 33 33 33 34 34 35 35 35 35 36 36 37 37 37 37 37 37 37 37 37 36 34 32 31 30 28 26 25 24 22 21 20 19 18 17 17 17 17 17 18 19
35 35 35 36 36 36 36 37 37 38 38 39 39 39 40 41 41 41 41 40 40 40 39 38 37 36 35 33 31 30 28 27 25 24 23 22 20 19 19 19 19 20 21
37 37 38 38 38 39 39 39 40 40 41 41 42 42 42 43 43 44 44 44 44 44 44 43 42 40 40 39 37 35 33 31 30 28 27 25 24 23 22 21 21 21 21
39 39 40 40 41 41 42 43 43 44 44 44 45 45 46 46 46 47 47 47 47 47 48 48 47 46 45 44 43 41 39 37 35 34 32 30 29 27 26 25 24 24 24
41 41 42 43 43 44 45 46 46 47 47 48 49 49 50 50 51 51 51 51 51 51 51 51 52 51 51 49 48 47 45 44 42 39 37 36 34 32 31 29 28 27 27
43 44 45 45 46 47 48 49 49 50 51 52 53 54 54 55 55 55 55 54 54 54 54 54 55 55 55 54 53 52 51 50 48 46 44 41 39 37 35 34 32 31 30

GEFSGL_500_meanwind_066.txt.gz
Wind_Speed
18 18 18 19 19 19 19 19 19 19 19 18 18 18 17 17 16 15 14 13 13 13 14 16 18 21 24 27 30 32 34 37 39 41 44 45 46 47 47 47 47 48 48
18 18 18 18 18 18 18 18 19 19 19 19 18 18 18 18 18 17 16 15 15 13 13 15 17 19 22 24 27 30 33 35 37 40 42 45 46 48 48 48 47 48 48
18 18 18 18 19 18 18 18 19 19 19 19 19 19 19 19 19 19 19 17 16 15 15 15 16 18 20 22 24 28 31 34 36 38 41 43 45 46 47 48 48 48 48
18 18 18 18 19 19 19 19 19 19 19 19 19 19 19 20 20 20 20 18 18 17 16 16 17 17 18 20 22 24 27 30 33 36 39 42 44 46 46 46 48 48 48
18 18 19 19 19 19 19 19 19 19 19 19 19 19 19 20 20 21 20 19 18 18 18 18 18 17 18 18 19 21 23 26 29 32 36 39 42 44 45 45 46 47 47
19 19 19 19 19 19 19 19 19 19 19 19 19 19 19 20 20 20 20 19 19 19 20 19 18 18 18 17 17 17 19 22 24 28 31 34 37 40 42 44 45 46 46
19 20 20 20 20 20 20 19 19 19 19 19 19 19 19 19 20 20 20 19 19 20 20 20 19 18 18 17 16 16 16 18 20 23 26 29 32 35 38 40 42 44 45
20 21 21 21 21 21 21 21 20 20 20 20 20 20 20 19 20 20 20 20 19 19 20 20 19 18 17 16 16 15 14 15 16 19 22 25 28 31 34 36 39 41 42
21 22 23 23 23 23 22 22 22 21 21 21 21 21 20 20 20 20 20 20 20 20 20 20 19 18 18 17 16 15 14 14 15 16 18 21 24 27 30 32 35 37 38
24 25 25 25 25 25 24 24 23 23 22 22 22 21 21 21 21 20 20 20 20 20 20 19 19 19 18 17 16 15 15 14 14 16 17 19 22 24 26 29 32 34 36
26 27 28 28 27 27 26 26 25 24 23 23 23 22 22 22 22 21 21 21 21 21 21 20 19 19 18 18 17 16 15 15 14 15 16 17 19 22 24 26 29 32 34
28 29 30 29 29 28 28 27 26 25 25 24 23 23 23 22 22 22 22 22 22 22 21 21 20 20 19 19 18 17 16 16 15 14 15 15 17 19 22 24 27 30 33
30 31 31 31 30 29 29 28 28 27 26 25 24 24 24 23 23 23 23 22 22 22 22 22 21 21 20 20 19 18 17 16 16 15 15 15 16 17 19 22 24 27 29
32 32 32 32 31 30 29 28 28 27 26 25 25 24 24 24 23 23 23 23 23 23 23 23 22 22 21 21 20 19 18 17 17 16 16 16 16 17 18 19 22 24 27
33 33 33 32 32 31 30 28 27 26 26 25 25 24 24 23 24 23 23 23 24 24 24 24 24 23 23 22 21 21 20 19 18 18 17 17 18 18 18 18 19 22 25
34 35 34 34 33 31 29 29 28 27 26 26 25 24 24 24 24 24 24 24 24 25 25 25 25 25 24 24 23 23 22 21 21 20 19 19 19 19 19 19 19 20 22
36 36 36 34 33 31 30 29 29 29 28 27 27 26 26 26 26 26 26 26 26 26 27 26 26 26 26 26 25 25 24 24 23 22 22 21 20 20 19 19 20 21 21
37 37 36 35 34 32 31 30 29 29 30 30 30 29 29 28 28 29 29 29 29 29 29 29 29 29 29 28 28 28 27 27 26 25 24 23 23 22 22 21 21 21 21
38 38 37 36 35 34 33 32 31 30 30 30 31 32 31 31 31 31 31 32 32 32 32 32 31 31 32 32 31 31 30 30 29 29 28 27 26 25 24 24 23 23 23
40 40 39 38 37 36 35 34 33 33 32 32 32 32 33 33 34 34 34 34 35 35 35 35 35 35 35 35 35 35 35 34 33 33 32 31 30 29 28 27 26 26 25
42 41 40 39 38 37 36 36 35 35 35 34 34 34 34 35 35 36 36 37 37 38 38 38 38 38 39 38 38 38 38 38 38 37 36 36 35 34 33 31 30 29 28
43 43 42 41 40 39 38 37 37 37 36 36 36 36 36 37 37 38 38 39 40 40 41 42 42 42 42 43 43 43 42 42 42 42 41 40 39 38 37 36 35 33 32
45 44 43 42 41 40 39 39 38 38 38 38 38 39 39 39 40 41 41 42 43 44 44 45 45 46 46 47 47 47 47 47 46 46 46 45 44 43 42 41 39 38 36
46 45 43 42 41 40 39 39 39 39 39 40 40 41 41 42 43 44 45 46 47 48 48 49 49 50 51 51 52 52 52 52 52 51 51 50 50 49 47 46 44 42 40
46 44 43 41 40 39 39 39 39 40 41 42 42 43 44 45 46 47 48 49 50 51 52 53 54 55 56 57 57 57 57 57 56 56 56 55 55 54 53 51 50 47 45
45 43 41 40 39 39 39 40 41 42 43 44 45 46 47 48 50 51 52 53 55 56 57 59 60 61 61 62 62 62 61 61 60 60 61 60 59 59 58 57 55 53 50

GEFSGL_500_meanwind_072.txt.gz
Wind_Speed
14 15 15 15 15 15 15 15 15 16 15 15 15 15 15 14 13 13 13 12 10 8 7 7 8 9 11 14 17 20 22 25 28 31 35 37 39 42 44 46 47 48 47
14 14 15 15 15 15 15 15 15 15 15 15 15 14 14 14 14 14 13 13 12 10 9 8 8 9 10 12 14 17 20 22 25 28 32 35 38 40 42 44 46 49 50
14 15 15 15 15 15 15 15 15 14 14 14 14 14 14 14 14 14 14 13 13 12 10 10 9 10 10 11 12 14 17 20 23 26 30 33 36 38 40 42 45 47 49
14 15 15 15 15 15 15 15 15 15 15 14 14 14 14 13 13 13 13 13 13 13 12 11 11 10 11 11 12 13 14 17 20 23 26 29 32 34 36 39 42 45 47
14 15 15 16 16 16 15 15 15 15 15 15 15 14 14 14 13 13 14 14 14 13 13 12 12 12 12 12 12 12 13 14 16 18 21 24 27 29 31 34 38 41 44
14 15 16 17 17 17 17 17 17 16 16 16 16 15 15 14 14 14 14 14 14 14 14 13 13 13 13 13 13 14 14 14 15 17 18 20 23 25 27 29 32 36 39
14 15 17 17 18 18 19 19 19 18 18 17 17 16 16 15 15 14 14 15 15 15 15 14 14 14 14 14 14 15 15 15 15 16 17 19 20 22 23 25 27 30 33
15 16 17 18 19 20 20 20 20 20 19 19 18 17 17 16 16 15 15 15 15 15 15 15 15 15 15 15 15 15 15 15 15 16 17 18 19 19 21 22 24 25 28
15 16 18 19 20 21 21 22 21 21 21 20 19 18 17 17 16 16 16 16 16 16 16 16 16 16 16 16 16 16 16 16 16 16 17 17 18 19 20 21 22 23 25
16 17 18 19 21 22 22 23 23 22 22 21 20 19 18 18 18 17 17 17 17 17 17 17 17 17 17 17 17 17 17 17 17 17 17 17 18 19 20 21 21 22 23
16 17 19 20 21 22 23 23 23 23 23 22 21 20 19 19 19 18 18 18 18 18 18 18 18 18 18 18 18 18 18 18 18 19 18 18 18 18 19 20 21 22 23
17 18 19 21 22 23 24 24 24 24 24 23 22 21 20 20 19 19 19 19 19 19 19 19 19 18 18 18 18 19 19 19 19 19 19 19 19 19 19 19 20 21 22
19 20 21 22 23 24 25 25 25 25 24 24 23 22 22 22 21 21 21 21 20 20 20 20 20 19 19 20 20 20 20 20 20 20 20 20 20 20 20 20 21 21 22
20 21 22 23 24 25 25 26 26 26 25 25 24 24 24 24 23 23 22 22 22 22 21 21 21 21 21 21 22 22 22 22 22 22 22 21 21 21 22 22 22 21 22
22 23 23 24 25 26 26 27 27 27 27 26 26 26 25 25 25 25 25 24 24 23 23 23 23 23 23 23 24 24 24 24 24 24 24 24 23 23 23 23 23 23 23
24 25 25 26 27 27 28 28 28 28 28 28 27 27 27 27 27 27 26 26 26 25 25 25 25 25 26 26 26 26 26 26 26 26 26 26 26 26 25 25 25 25 25
26 27 27 28 29 29 30 31 31 30 30 30 29 29 28 28 28 28 28 28 28 27 27 27 27 27 28 28 28 28 29 29 29 29 29 29 29 28 28 28 28 28 28
28 29 29 30 31 31 32 33 34 34 33 33 32 31 30 29 29 29 29 29 29 29 29 29 29 30 30 30 30 31 31 31 32 32 32 32 32 32 32 32 32 31 31
31 31 32 32 33 34 34 35 36 36 36 36 35 34 33 32 31 31 30 30 30 31 31 31 32 32 32 33 33 33 34 34 35 35 35 36 36 36 36 35 35 35 34
33 34 34 35 35 36 37 37 37 38 38 37 37 36 35 34 33 33 32 32 32 33 33 34 34 35 35 36 36 36 37 37 38 38 39 39 39 39 39 39 39 39 39
36 36 37 37 38 39 39 40 40 40 39 39 38 37 36 36 35 35 34 34 34 35 36 36 37 38 38 39 39 40 41 41 41 42 42 42 43 43 43 44 44 43 43
38 39 39 40 40 41 42 42 42 41 41 40 39 38 37 36 36 36 36 36 37 37 38 39 40 41 42 42 43 44 44 45 46 46 46 47 47 47 48 48 48 48 48
41 41 42 42 43 44 44 44 43 42 41 41 40 39 38 37 37 37 38 38 39 40 41 42 43 44 45 46 47 48 48 49 50 51 51 52 52 53 53 53 53 53 53
44 44 44 45 46 46 46 45 44 43 42 42 41 40 39 39 39 39 40 41 41 43 44 45 46 47 48 49 51 52 53 54 54 55 56 56 57 57 58 58 58 58 58
46 46 47 47 48 48 47 45 45 44 44 43 42 41 41 40 41 41 42 43 44 45 47 48 49 50 52 53 55 56 58 59 60 61 62 62 62 62 62 63 63 62 62
49 49 50 50 49 49 48 47 46 45 44 43 43 42 42 42 43 44 45 46 47 48 49 51 52 54 55 57 59 61 62 64 66 67 68 68 68 68 68 67 67 67 67

GEFSGL_500_meanwind_078.txt.gz
Wind_Speed
8 8 9 9 9 9 9 10 10 10 10 10 10 10 10 9 8 8 7 6 5 4 3 3 4 6 8 10 12 14 16 19 21 23 25 27 29 30 32 34 36 38 39
7 8 8 9 9 9 9 10 10 10 10 10 10 9 9 9 8 7 7 6 5 5 4 3 3 4 7 9 10 12 14 16 18 20 22 24 26 28 31 33 35 37 39
7 8 8 9 9 9 10 10 10 10 10 10 10 9 9 9 8 8 7 6 6 5 5 4 3 4 6 8 9 11 13 15 16 18 21 23 24 26 28 31 33 35 38
7 7 8 8 9 9 10 11 11 11 11 11 11 10 10 9 9 9 8 7 7 6 6 5 5 5 6 7 8 10 12 13 15 17 18 21 23 24 26 28 30 32 35
6 7 7 8 9 9 10 11 12 12 12 12 12 11 11 11 10 10 9 9 8 8 7 7 7 7 7 8 9 10 11 13 14 16 17 19 21 23 25 27 28 29 31
7 7 7 8 9 10 11 11 12 12 13 13 12 12 12 12 12 11 11 11 10 10 9 9 9 9 9 10 10 11 11 13 14 15 16 17 19 20 22 24 26 27 29
8 7 8 8 9 10 10 11 12 12 13 13 13 13 13 13 12 12 12 12 12 11 11 11 11 11 12 12 12 13 13 14 14 15 16 17 18 20 21 22 23 25 27
9 9 8 9 9 10 10 11 12 13 13 14 14 14 14 13 13 13 13 13 13 13 13 13 13 13 13 14 14 14 15 15 16 16 17 18 19 20 21 22 23 24 26
11 10 9 9 10 10 11 12 12 13 14 14 14 15 14 14 14 14 14 14 14 14 14 14 14 14 15 15 15 16 16 16 17 17 18 18 19 20 21 22 23 24 25
13 12 11 11 11 11 12 12 13 14 14 15 15 15 15 15 15 15 15 16 16 16 16 16 16 16 16 17 17 17 17 18 18 18 19 19 20 20 21 22 23 24 25
15 14 14 13 12 12 13 13 14 14 15 15 15 16 16 16 16 16 17 18 18 18 18 18 18 18 19 19 19 19 19 19 19 20 20 20 21 21 21 22 23 24 25
17 16 16 15 15 14 14 14 15 15 15 16 16 17 17 17 18 18 19 19 20 20 20 20 21 21 21 21 21 21 21 21 21 21 22 22 22 22 22 23 23 24 24
19 19 18 17 17 16 16 16 16 16 17 17 18 18 19 19 20 20 20 21 22 22 23 23 23 23 23 23 23 23 23 23 23 24 24 24 24 24 24 24 24 25 25
22 21 20 20 19 19 18 18 18 18 19 19 20 21 21 22 22 22 23 23 24 24 24 25 25 25 25 25 25 25 25 25 26 26 26 26 26 26 26 26 26 26 26
25 24 23 22 22 21 21 21 21 21 21 21 22 23 24 24 24 25 25 26 26 26 26 26 26 27 27 27 27 27 27 27 27 27 27 28 28 28 28 28 28 28 29
27 26 26 25 24 24 23 23 23 23 23 24 24 25 26 27 27 28 28 29 29 28 28 28 28 28 28 29 29 29 29 29 29 29 29 29 30 30 30 31 31 31 31
30 29 28 27 27 26 26 25 25 25 26 26 27 27 28 29 30 30 31 31 31 31 30 30 30 30 30 30 30 31 31 31 31 31 31 32 32 32 33 33 34 34 34
32 31 30 30 29 29 28 28 28 28 28 28 29 30 30 31 31 32 32 32 33 32 32 32 32 32 32 32 32 33 33 33 33 34 34 35 35 35 35 36 36 36 37
33 33 32 32 31 31 31 31 30 30 30 31 31 32 32 32 33 33 33 34 34 34 33 33 33 34 34 34 34 34 35 35 36 36 37 37 38 38 38 39 40 40 40
35 34 34 33 33 33 33 33 33 33 33 33 33 34 34 34 34 34 35 35 35 35 35 35 35 35 36 36 36 36 37 37 38 39 39 40 41 41 42 42 43 43 44
37 36 35 35 35 35 35 35 35 35 35 35 36 36 36 36 36 36 36 37 37 37 36 37 37 37 37 37 38 38 39 39 40 41 42 43 44 45 46 46 47 47 47
39 38 37 37 37 36 36 37 37 37 37 37 38 38 38 38 38 38 38 39 39 39 38 38 38 39 39 39 40 40 41 42 43 44 45 46 47 48 49 49 50 51 51
41 40 40 39 39 39 39 39 39 39 39 39 40 40 40 40 40 40 40 41 41 40 40 40 40 40 40 41 42 43 44 45 46 47 48 49 50 51 52 53 54 56 57
43 42 42 41 41 41 41 40 40 41 41 41 42 42 42 42 42 42 42 42 42 42 42 42 42 42 42 43 44 45 46 48 49 50 51 52 53 54 56 57 58 60 61
45 44 44 43 43 43 43 42 42 43 43 43 44 44 44 44 44 44 44 44 44 43 43 43 43 43 44 45 46 47 49 50 51 52 53 54 56 57 59 61 62 63 64
47 46 46 45 45 45 44 44 44 44 45 45 45 45 45 45 45 45 45 45 44 44 43 43 44 44 45 46 48 49 50 52 53 55 56 57 59 60 62 63 64 65 65

GEFSGL_500_meanwind_084.txt.gz
Wind_Speed
11 11 12 12 12 12 12 12 12 12 12 11 10 10 9 8 8 7 6 6 5 4 3 3 3 3 5 7 8 10 12 14 16 18 20 21 23 24 26 27 28 30 31
10 10 11 11 12 12 11 12 12 12 12 11 10 10 9 8 7 7 6 6 5 5 4 3 3 3 4 5 7 9 10 12 14 16 18 19 21 22 24 26 27 29 30
10 10 10 11 11 11 11 11 12 12 12 11 10 10 9 9 8 7 6 6 6 5 5 4 4 4 4 4 6 8 9 11 12 14 16 17 19 21 22 23 25 26 28
11 10 10 10 10 11 11 11 11 12 12 11 11 10 9 9 8 8 7 6 6 6 6 5 5 5 5 5 6 8 9 11 12 14 15 17 18 20 21 23 23 24 26
12 11 10 10 10 10 11 11 11 12 12 12 12 11 10 9 9 8 8 8 7 7 7 6 6 7 7 7 8 9 10 11 12 13 15 17 18 20 21 22 24 25 26
13 13 12 11 10 10 10 11 11 11 12 12 12 12 11 10 10 9 9 9 8 8 8 8 8 8 8 9 9 10 11 12 13 14 15 17 18 19 21 22 23 24 26
15 14 13 12 11 11 11 10 11 11 12 12 12 12 12 11 10 10 10 9 9 9 9 9 9 9 10 10 11 11 12 13 14 15 16 17 18 19 20 21 22 23 25
17 16 15 14 13 12 12 11 11 11 12 12 12 12 12 11 11 10 10 10 10 10 10 11 11 11 11 12 12 13 14 14 15 16 17 18 19 19 20 21 22 23 25
19 18 17 16 15 14 13 13 12 12 12 12 12 12 12 12 12 11 11 11 11 11 12 12 12 13 13 14 14 14 15 16 17 18 18 19 20 20 21 22 23 24 25
22 21 20 19 18 16 15 14 14 13 12 12 12 12 12 12 12 12 12 12 13 13 13 14 14 15 15 16 16 16 17 17 18 19 19 20 21 21 22 23 24 25 26
24 23 22 21 20 19 18 17 16 15 14 14 13 13 13 13 13 14 14 14 14 15 15 16 16 17 17 18 18 18 19 19 20 20 21 21 22 22 23 24 25 26 26
27 26 25 24 23 22 21 20 19 18 17 16 16 15 14 14 15 15 15 16 16 17 17 18 18 19 19 19 20 20 20 21 21 22 22 23 23 24 24 25 26 26 27
29 29 28 27 26 25 24 23 22 21 20 19 18 17 17 16 17 17 17 18 18 19 19 20 20 21 21 21 21 21 22 22 23 23 24 24 25 25 26 26 26 27 27
32 31 31 30 29 28 27 25 24 24 23 22 21 20 19 19 19 19 19 20 21 21 21 22 22 22 23 23 23 23 23 24 24 25 25 26 26 27 27 27 27 28 28
34 34 33 33 32 31 30 28 27 26 26 25 24 23 22 22 21 21 22 22 22 23 23 23 24 24 24 24 25 25 25 26 26 26 27 27 28 28 28 29 29 29 30
37 36 35 35 34 33 32 31 30 29 28 28 27 26 25 25 24 24 24 24 24 24 24 24 25 25 25 26 26 26 27 27 28 28 28 29 29 29 30 30 31 31 31
39 38 38 37 36 36 35 34 33 32 31 30 30 29 28 27 27 26 26 26 26 26 26 26 26 27 27 27 28 28 28 29 29 30 30 31 31 31 32 32 33 33 34
41 41 40 39 38 38 37 36 35 34 33 32 32 31 30 29 29 28 28 28 28 28 28 28 29 29 29 30 30 30 30 31 31 32 32 33 33 34 34 35 35 36 36
43 42 42 41 40 39 38 38 37 36 35 34 33 33 32 31 31 30 30 30 30 30 30 30 31 31 31 32 32 32 33 33 33 34 34 35 35 36 37 37 38 39 39
45 44 43 43 42 41 40 39 38 37 36 35 35 34 33 33 32 32 32 32 32 32 32 32 33 33 34 34 34 35 35 35 36 36 37 37 38 38 39 40 41 41 42
48 46 45 44 43 43 42 41 40 39 38 37 36 35 35 34 34 34 34 33 33 34 34 34 35 36 36 37 37 37 38 38 38 39 39 40 40 41 42 43 43 44 44
51 49 48 46 45 44 43 42 41 40 39 38 37 37 36 36 35 35 35 35 35 35 36 36 37 37 38 38 39 39 40 40 41 41 42 43 43 44 44 45 46 46 47
54 52 50 48 47 46 45 43 42 41 40 39 38 38 37 36 36 36 36 36 36 37 37 38 38 39 39 40 40 41 41 42 43 43 44 45 45 46 47 47 48 49 49
56 55 53 50 49 47 46 44 43 42 41 40 39 38 38 38 38 38 38 38 38 38 39 39 40 40 41 41 42 42 43 44 44 45 46 46 47 48 48 49 50 50 51
56 56 55 52 50 49 47 46 44 43 42 42 41 40 40 39 39 39 39 39 39 40 40 40 41 42 42 43 43 44 45 45 46 46 47 48 49 49 50 50 51 51 53
56 55 55 53 52 50 49 47 46 44 43 42 42 41 41 41 41 40 40 40 41 41 41 42 43 43 43 44 45 46 46 47 47 48 48 49 50 50 50 51 51 53 54

GEFSGL_500_meanwind_090.txt.gz
Wind_Speed
9 9 8 9 9 9 9 10 10 10 10 10 10 9 9 9 8 7 5 4 3 2 2 2 2 3 5 6 9 12 14 15 16 18 20 20 21 22 22 23 24 26 27
10 10 9 9 8 8 8 8 9 9 9 9 9 9 8 8 7 7 6 4 3 2 1 1 1 2 3 5 7 10 13 14 15 17 19 20 21 22 22 22 23 25 27
12 11 10 9 8 8 7 7 8 8 8 8 8 8 8 7 7 6 5 4 3 2 1 0 1 2 3 5 6 8 10 12 14 16 17 18 20 21 22 22 23 24 26
14 13 12 11 9 8 7 7 7 7 7 8 8 8 7 7 6 6 5 4 3 2 2 1 2 2 3 4 5 7 9 11 12 14 15 16 18 19 20 21 22 23 25
16 15 14 13 11 10 9 8 7 7 7 7 7 7 7 6 6 5 5 4 3 3 2 2 3 3 3 4 5 6 8 9 11 13 14 14 16 18 19 20 21 22 23
18 17 17 15 14 12 11 10 9 8 7 6 6 6 6 6 5 5 5 5 4 4 3 3 3 4 4 5 5 6 7 9 11 12 14 15 16 17 19 20 21 22 23
20 20 19 18 17 15 14 12 11 10 9 8 7 7 6 6 5 5 5 5 5 4 4 4 4 4 5 5 6 7 8 9 11 12 13 14 16 17 18 20 21 22 23
22 22 22 21 20 18 16 15 14 13 11 10 9 8 7 6 6 6 6 6 5 5 5 5 5 6 6 6 7 8 9 10 11 12 14 15 16 17 19 20 21 22 23
24 24 24 24 23 21 20 18 17 16 14 13 11 10 9 8 7 7 7 7 7 6 6 7 7 7 8 8 8 9 10 11 12 13 14 15 17 18 18 20 21 22 23
26 26 26 26 25 24 23 22 20 19 17 16 14 13 12 11 10 9 9 9 9 9 8 9 9 9 9 10 10 11 11 12 13 14 15 16 17 18 19 20 21 23 24
29 28 28 28 28 27 26 25 24 22 21 19 18 16 15 14 13 12 12 11 11 11 11 11 11 11 11 12 12 13 13 14 15 16 16 17 18 19 20 20 22 23 24
31 31 30 30 30 30 29 28 27 26 24 23 21 20 18 17 16 16 15 14 14 13 13 13 13 13 13 13 14 14 14 15 16 16 17 18 19 20 20 21 22 23 24
34 33 33 33 33 32 32 31 30 29 28 26 25 23 22 21 20 19 18 17 17 16 16 15 15 15 15 15 15 15 16 16 17 18 18 19 20 21 22 23 24 25 26
37 36 36 35 35 35 34 34 33 32 30 29 28 27 25 24 23 22 21 20 19 19 19 18 18 18 17 17 17 17 18 18 19 20 20 21 21 22 23 24 25 26 27
40 39 39 38 37 37 37 36 35 34 33 32 31 30 28 27 26 25 24 23 23 22 22 21 21 20 20 20 19 19 20 20 21 22 22 23 24 25 26 26 27 28 29
44 43 42 41 40 40 39 39 38 37 36 35 34 32 31 30 29 28 27 26 25 25 24 24 23 23 22 22 22 22 22 23 23 24 24 25 26 27 27 28 29 30 31
48 47 46 45 44 43 42 41 40 39 38 37 36 35 34 32 31 30 29 29 28 27 26 26 25 25 25 25 25 25 25 25 25 26 26 27 28 28 29 30 31 32 33
52 52 50 48 47 46 45 44 43 42 41 40 39 38 36 35 34 33 31 31 30 29 28 28 27 27 27 27 27 27 27 27 28 28 28 29 30 30 31 32 33 34 35
55 54 54 52 50 49 48 47 45 44 43 42 41 40 38 37 36 34 33 32 31 30 30 29 29 29 29 29 29 29 29 29 29 30 30 31 31 32 33 34 35 36 37
56 56 56 55 53 52 51 49 48 47 45 44 43 41 40 39 37 36 35 34 33 32 31 31 30 30 30 30 30 30 30 31 31 31 32 33 33 34 35 36 37 38 39
56 56 57 58 56 54 53 51 50 49 47 46 45 43 42 41 39 38 36 35 34 33 32 31 31 31 31 31 31 31 31 32 32 33 33 34 35 36 37 38 39 40 41
55 55 57 58 58 56 55 53 52 51 50 48 46 46 44 43 41 39 38 36 35 34 33 32 32 31 31 32 32 32 32 33 33 34 34 35 37 38 39 40 41 42 43
54 54 56 57 57 58 57 55 54 52 51 50 48 47 45 44 42 40 39 37 36 35 34 33 32 32 32 32 33 33 33 34 35 35 36 37 39 40 41 41 42 43 45
52 53 55 56 57 58 58 57 56 55 53 52 50 49 46 44 43 42 40 39 38 36 35 34 34 33 33 33 33 34 34 35 36 36 37 39 40 41 42 43 44 45 46
50 51 52 54 55 56 57 57 57 57 55 53 51 50 49 46 44 43 42 40 39 37 36 35 34 34 34 34 34 34 35 36 36 37 39 40 41 42 43 45 46 47 48
47 49 50 52 53 54 55 56 56 56 56 55 53 51 50 49 47 45 43 41 40 39 38 36 35 35 35 35 35 36 36 37 37 38 39 41 42 43 44 46 47 48 49

GEFSGL_500_meanwind_096.txt.gz
Wind_Speed
13 12 12 12 12 12 12 12 11 11 10 10 10 9 8 8 7 7 6 4 2 1 1 2 4 5 7 9 10 11 12 14 16 18 18 19 20 20 21 22 23 24 25
14 14 13 13 13 13 13 12 12 11 11 10 9 9 8 7 6 6 6 4 3 2 1 1 2 4 6 7 9 10 12 13 15 17 19 19 20 21 21 22 22 23 24
15 15 15 15 14 14 14 13 13 12 11 11 10 9 8 7 6 5 5 4 3 2 1 2 2 4 5 6 7 9 10 11 13 15 17 18 19 20 21 22 23 23 24
17 17 17 16 16 16 15 15 14 13 12 12 11 10 8 8 7 6 5 4 3 3 2 2 3 4 5 6 7 8 9 10 12 14 16 17 18 20 21 21 22 23 23
19 19 19 18 18 18 17 17 16 15 14 13 12 11 10 9 8 7 6 5 4 4 4 4 4 4 5 6 7 9 10 10 12 13 14 15 17 18 20 21 22 22 23
21 21 21 20 20 20 20 19 18 17 16 15 14 13 12 11 10 8 7 7 6 6 6 6 5 5 6 7 8 9 9 10 11 13 14 14 15 17 19 20 21 22 23
23 23 23 22 22 22 22 21 21 20 19 17 16 15 14 13 12 10 9 8 8 7 7 7 7 7 7 8 8 9 9 10 11 12 13 14 15 16 17 19 20 21 22
25 25 25 24 24 24 24 24 23 23 22 21 19 18 17 16 15 14 12 11 10 9 9 9 8 8 8 8 9 9 10 10 11 12 13 13 14 15 16 17 18 20 21
28 27 27 27 26 26 26 26 26 25 25 24 22 21 20 19 18 17 15 14 13 12 11 11 10 10 10 10 10 10 10 11 11 12 13 13 14 14 16 17 18 19 20
31 31 30 30 29 29 29 29 29 28 27 27 25 24 23 22 21 20 18 17 16 15 14 13 12 12 12 12 11 11 12 12 12 13 14 14 15 15 16 17 18 19 20
34 34 34 33 33 32 32 32 31 31 30 29 29 28 26 25 25 23 22 20 19 18 17 16 15 14 14 14 14 13 13 14 14 14 15 15 16 16 16 17 18 19 20
37 37 37 36 36 36 35 35 34 34 33 32 32 31 30 29 28 27 26 24 23 21 20 19 18 17 17 16 16 16 15 15 15 16 16 17 17 17 17 18 19 19 20
41 40 40 40 40 39 39 38 38 37 36 35 35 34 34 33 32 31 30 28 27 26 24 23 22 21 20 19 19 18 18 17 17 17 17 18 18 18 19 19 20 20 21
46 45 44 44 44 43 43 43 42 41 40 39 38 37 37 37 35 34 33 32 31 29 28 26 25 24 23 22 21 21 20 20 19 19 19 19 19 20 20 21 22 22 23
49 49 49 48 47 47 47 46 46 45 44 43 42 41 41 40 39 38 37 36 34 33 32 30 28 27 26 25 24 23 23 22 22 21 21 21 22 22 22 23 24 25 26
53 52 52 51 51 50 50 50 50 49 48 47 46 45 44 43 42 42 41 39 38 37 35 33 31 30 29 28 27 26 25 25 25 24 24 24 24 24 25 25 26 27 27
56 55 54 54 54 53 53 53 52 52 52 51 50 48 47 46 46 45 44 43 42 40 38 36 35 33 32 31 30 29 28 28 27 27 27 26 27 27 27 28 28 29 29
58 58 57 56 56 56 56 56 55 55 55 54 53 52 50 49 48 48 47 46 44 42 40 39 37 36 35 34 33 32 31 30 30 29 29 29 29 29 29 30 30 30 31
59 58 57 57 57 57 57 57 57 57 57 57 56 55 54 52 51 51 50 48 46 44 42 41 40 39 37 36 35 34 33 32 31 31 31 30 30 30 31 31 31 31 32
58 56 55 55 55 56 56 56 57 57 57 57 57 56 56 55 53 52 52 50 48 46 44 43 42 41 40 39 37 36 35 34 33 33 32 32 32 32 32 32 32 33 34
57 56 55 54 54 54 54 55 55 56 56 57 57 57 57 56 55 53 53 51 50 48 47 45 44 43 42 40 39 37 36 35 35 34 34 33 33 33 33 34 34 34 35
57 56 54 53 53 53 52 53 54 55 56 56 57 58 59 58 57 55 53 52 51 50 49 47 46 44 43 42 40 39 38 37 36 35 35 34 34 34 34 35 35 35 36
56 55 53 53 52 52 51 51 52 53 54 55 57 58 59 59 58 57 54 53 52 51 50 49 47 46 44 42 41 40 39 38 37 36 35 35 35 35 35 35 36 36 37
55 53 52 51 50 51 50 49 50 51 53 55 56 58 59 59 59 58 56 55 53 52 51 50 48 46 45 44 42 41 40 38 37 36 36 36 36 36 36 36 36 37 38
52 51 49 48 48 48 48 48 48 49 50 53 55 56 57 58 59 58 57 56 55 53 51 50 48 47 46 44 43 41 40 39 38 37 37 36 36 36 36 36 37 37 38
49 48 46 45 45 45 46 45 46 47 48 50 52 54 56 56 57 57 56 56 55 54 52 51 50 48 46 45 44 42 40 40 39 38 37 36 36 36 36 37 38 38 39

GEFSGL_500_meanwind_102.txt.gz
Wind_Speed
14 14 15 15 15 16 16 16 16 16 16 15 14 14 14 13 12 11 10 9 7 5 4 3 4 6 9 10 12 13 15 17 19 19 21 22 23 24 25 25 26 26 26
15 15 15 15 16 16 16 16 16 17 16 16 15 14 14 13 12 11 10 9 8 6 5 4 5 7 8 9 11 12 14 15 17 18 20 21 23 24 24 24 25 25 25
16 16 16 16 17 17 17 17 17 17 17 16 16 15 14 13 12 12 11 10 9 8 6 6 6 7 9 10 11 12 13 14 16 17 18 19 21 23 23 24 24 24 25
17 17 17 17 18 18 19 19 19 18 18 17 17 16 15 14 13 13 12 11 10 9 8 7 7 8 9 10 11 12 13 14 15 16 17 18 18 21 22 23 23 24 25
18 19 19 19 19 19 20 20 20 20 20 19 18 18 17 16 15 14 14 13 12 11 10 10 9 9 9 10 11 12 14 14 15 17 17 18 18 19 21 23 24 25 26
20 21 21 21 22 22 21 22 22 22 21 21 20 20 19 19 18 17 16 15 14 13 12 12 11 11 11 11 12 13 14 15 16 17 18 19 20 19 21 22 24 24 25
23 23 24 24 24 25 24 24 24 24 24 24 23 23 22 21 21 20 19 18 17 16 15 14 14 13 14 14 13 14 15 16 17 17 18 19 20 21 21 22 23 24 24
26 26 27 27 27 28 28 28 27 27 26 26 26 26 25 24 23 23 22 21 20 19 18 17 17 16 16 16 16 16 16 16 17 18 18 19 20 21 21 21 22 23 23
29 29 30 30 31 31 31 31 30 30 30 29 29 29 28 28 27 26 25 24 24 23 22 21 20 19 19 19 19 18 18 18 18 18 18 19 20 20 21 22 22 22 22
32 33 33 34 34 34 34 34 34 33 33 33 32 32 31 31 31 30 29 28 27 26 25 24 23 22 21 21 21 21 21 20 20 20 20 20 20 21 21 22 22 22 22
36 37 37 38 38 38 38 38 38 37 37 36 36 36 35 34 34 33 33 32 31 30 29 28 27 26 25 24 23 23 23 22 22 21 21 20 20 21 21 21 21 21 21
40 41 41 42 42 43 43 42 42 41 41 40 40 39 39 38 38 37 36 36 35 34 32 31 30 30 29 27 26 25 25 24 24 23 23 22 22 22 21 21 21 21 22
44 45 46 46 47 47 47 47 47 46 45 45 44 43 43 42 42 41 40 39 39 38 36 35 34 33 32 31 29 28 27 26 26 25 25 24 23 23 23 22 22 22 22
48 49 49 50 50 50 50 50 50 49 49 48 48 48 47 46 45 45 44 43 43 42 40 39 38 37 36 35 33 31 30 29 28 28 27 27 26 25 24 24 24 24 24
52 53 53 52 52 53 53 53 52 51 51 51 51 51 51 49 49 49 48 47 46 45 44 43 42 40 40 38 37 35 34 32 31 31 30 29 28 27 27 26 25 25 26
54 54 55 55 55 55 55 54 53 54 53 54 53 53 52 52 52 52 51 51 50 49 48 47 45 43 42 41 40 38 37 36 34 33 32 31 30 29 29 28 27 27 27
57 57 57 57 57 58 57 56 54 54 54 54 54 54 54 53 53 53 53 53 52 52 51 49 47 46 44 43 42 41 39 38 37 36 35 34 33 32 31 30 30 29 29
59 59 59 59 59 59 59 57 55 54 53 52 53 53 54 54 53 53 54 54 54 53 52 50 49 48 47 46 44 43 42 41 39 38 37 36 35 34 33 32 32 31 31
61 61 61 61 61 61 60 58 56 54 53 52 51 52 53 54 54 54 54 55 55 54 53 52 50 49 48 48 46 45 44 43 41 40 39 38 37 36 35 34 33 33 32
63 63 63 63 62 61 59 58 56 54 53 52 51 51 52 53 53 53 53 54 55 55 54 53 52 51 49 49 48 46 45 44 43 42 40 39 38 37 36 35 34 33 33
65 64 63 63 62 60 59 57 56 54 52 51 51 50 51 52 52 53 53 53 54 55 55 54 54 53 51 50 49 48 46 45 44 43 42 41 40 38 37 36 35 34 34
65 64 64 63 62 60 58 57 55 53 52 51 51 50 50 51 52 53 53 54 55 55 56 56 55 54 53 51 50 49 48 46 45 44 43 42 40 39 38 37 36 35 35
65 65 64 63 62 60 58 56 54 53 51 50 49 49 48 49 50 51 52 54 55 55 55 56 56 54 53 52 52 50 49 47 45 44 44 43 41 40 39 38 37 36 35
65 64 64 62 60 58 56 54 51 50 48 47 47 47 47 48 48 49 50 52 54 54 55 56 56 56 54 53 52 51 50 48 46 45 44 43 42 40 39 38 37 36 36
64 63 62 60 57 55 52 50 48 47 46 45 44 45 45 45 45 46 47 50 51 52 52 54 55 55 53 53 53 52 51 49 47 45 43 42 41 40 39 37 36 36 35
62 60 58 56 53 51 50 48 46 45 44 43 43 43 43 43 43 44 45 47 48 49 50 51 53 53 52 52 52 51 51 49 48 46 44 42 42 40 39 37 36 35 35

GEFSGL_500_meanwind_108.txt.gz
Wind_Speed
12 13 14 15 15 16 17 18 18 18 18 19 19 19 18 18 18 16 15 14 13 12 11 9 8 7 6 5 6 8 9 11 13 14 16 18 19 21 21 22 23 23 23
13 14 14 15 15 16 17 18 19 19 19 19 19 19 19 19 18 18 16 15 14 13 12 10 9 9 8 8 8 9 10 11 13 14 15 17 18 19 20 22 23 24 24
14 14 15 15 16 17 18 19 20 20 21 21 21 20 20 20 19 18 18 16 15 14 13 12 11 10 10 10 10 11 11 12 13 14 15 16 18 19 20 20 22 23 24
14 15 16 17 17 18 19 20 21 21 22 22 22 22 21 21 20 20 19 18 16 15 14 13 12 12 12 12 11 12 13 13 15 15 16 17 18 19 20 20 21 22 23
15 16 17 18 19 20 21 22 22 22 23 23 23 23 23 23 22 22 21 20 19 18 17 15 14 14 13 13 13 13 14 15 15 16 17 18 18 19 20 22 22 23 24
17 18 19 20 21 22 23 23 24 24 24 25 25 25 25 24 24 24 23 22 21 20 19 18 17 16 16 15 15 15 16 16 16 16 17 19 19 20 21 22 23 24 24
19 20 21 21 22 23 24 25 26 26 27 27 27 27 27 27 27 27 26 26 24 23 23 22 20 19 19 19 18 17 17 18 19 19 19 19 20 21 22 23 23 23 24
21 22 23 23 24 25 27 28 29 29 30 30 30 30 31 30 30 30 30 29 28 27 26 25 24 23 22 22 22 21 20 20 21 21 21 22 22 22 23 24 24 25 25
24 24 25 26 27 29 30 31 32 32 32 33 34 34 34 34 34 33 33 32 31 30 29 29 28 27 26 26 25 25 24 24 23 24 24 24 24 24 25 25 26 26 26
26 27 28 29 30 32 33 34 34 35 35 36 37 38 37 37 37 36 36 36 35 34 33 33 32 31 30 29 29 28 27 27 26 26 26 26 26 27 27 27 27 27 27
29 30 31 32 33 34 36 37 38 38 39 40 40 41 40 40 40 40 39 39 39 38 37 36 36 35 35 34 33 32 31 31 30 29 29 28 27 27 28 28 28 28 28
32 33 34 35 36 38 40 40 41 42 43 43 43 43 43 43 43 42 42 42 42 42 41 40 39 39 38 37 36 35 35 34 33 32 32 31 30 29 29 29 29 29 29
35 36 37 38 40 41 43 44 45 45 45 44 44 44 45 45 45 45 45 45 45 46 45 44 43 42 41 41 40 39 38 37 36 35 34 34 33 32 31 31 30 29 28
38 39 40 41 42 44 45 46 47 47 46 47 47 46 47 47 47 48 48 48 48 48 47 47 46 44 44 44 43 42 41 40 39 37 36 35 35 34 33 32 32 31 30
41 42 43 44 45 46 47 48 49 49 49 50 50 50 50 50 50 51 51 50 50 50 49 49 47 47 46 46 45 44 44 43 42 40 39 38 37 36 35 34 33 33 32
44 45 46 47 48 49 50 51 52 52 53 53 54 54 54 54 54 53 53 53 52 51 51 50 48 47 47 47 46 46 45 45 44 43 42 41 39 38 37 36 35 34 33
47 48 49 50 51 52 54 55 55 55 56 57 58 58 58 58 56 55 54 53 52 51 51 50 50 49 48 48 48 47 47 47 47 45 44 42 41 40 39 38 37 36 35
50 51 52 53 54 56 57 59 59 59 59 59 61 61 60 59 57 56 55 54 52 51 51 51 50 50 49 49 49 48 48 49 49 48 46 44 43 42 41 39 38 38 37
52 53 55 56 58 59 61 62 62 62 62 62 63 62 61 60 58 57 56 55 53 50 50 51 51 51 51 50 51 50 49 49 49 50 48 46 45 43 42 41 40 38 37
55 57 58 60 61 63 64 65 65 65 65 64 64 63 61 60 58 56 55 55 53 50 49 50 51 51 51 51 50 50 49 49 49 50 49 48 46 45 44 42 41 40 39
58 60 61 63 64 65 66 67 67 66 66 65 64 63 62 61 58 56 54 53 52 50 49 49 50 49 49 49 49 49 49 49 49 50 50 49 48 47 45 44 43 41 40
61 62 64 65 66 67 68 68 68 67 66 66 64 63 61 59 57 55 53 51 50 49 48 47 48 47 47 48 49 49 48 48 48 49 49 49 48 48 48 46 43 42 41
64 65 66 67 68 68 68 68 68 67 67 66 64 62 59 56 54 52 50 48 47 46 45 44 45 46 46 46 48 49 49 47 47 48 49 48 48 48 48 47 46 43 41
66 67 68 68 69 69 69 68 68 67 66 64 61 59 56 54 51 49 47 45 44 44 43 43 43 44 45 45 46 48 49 48 48 48 49 48 47 48 48 48 47 45 43
67 68 69 69 69 69 69 68 67 65 63 60 57 55 53 51 48 46 44 44 43 43 43 43 43 43 44 44 45 46 47 47 48 49 49 48 47 46 47 48 47 45 43
68 69 69 69 69 68 67 66 64 62 59 57 55 53 51 49 47 45 44 43 43 42 42 42 42 41 42 44 45 45 45 46 47 49 49 48 46 45 45 46 46 45 44

GEFSGL_500_meanwind_114.txt.gz
Wind_Speed
5 6 7 8 9 10 11 12 13 14 14 15 15 16 16 17 17 17 16 15 13 13 12 10 8 7 6 5 4 4 6 7 9 11 13 15 17 19 21 22 24 24 25
5 6 7 8 9 10 10 12 13 14 14 15 16 16 16 17 17 17 17 16 15 13 13 12 10 9 8 7 6 7 7 8 10 11 13 15 17 19 21 22 24 25 25
5 6 7 8 9 10 11 12 13 14 15 16 16 17 17 17 17 17 17 17 16 15 14 14 13 11 10 9 9 8 9 10 11 12 14 15 17 19 20 22 24 25 25
6 7 8 9 10 11 12 13 14 15 15 16 17 18 18 18 18 18 18 18 18 17 16 16 15 14 13 13 12 12 11 12 13 14 15 16 18 19 20 22 24 25 25
7 9 10 11 11 12 13 14 15 16 17 18 19 19 19 19 19 20 20 20 20 19 19 19 18 16 16 15 15 15 15 15 15 16 17 18 19 21 21 22 24 26 26
10 11 11 12 13 14 15 16 16 17 18 19 20 21 21 21 21 21 21 22 22 22 22 22 21 20 19 18 18 17 18 18 18 19 19 20 21 22 23 24 25 26 27
12 13 14 15 16 16 17 18 19 20 20 21 22 23 23 23 23 24 24 24 25 25 25 24 24 24 23 22 22 21 21 21 21 22 22 23 23 24 25 26 26 28 28
15 16 17 18 19 19 20 20 21 22 23 24 25 26 26 26 27 27 28 28 29 28 28 27 26 26 26 26 25 26 26 25 24 24 25 26 26 27 27 28 29 29 29
18 19 20 21 21 22 23 23 24 25 26 27 28 28 29 29 30 31 32 32 32 32 31 31 30 30 30 30 29 29 29 30 29 28 28 28 29 30 30 31 32 32 32
21 22 22 23 24 25 26 26 27 28 29 30 31 31 32 32 33 35 35 35 35 35 34 34 34 34 34 34 33 33 33 33 33 32 32 32 32 33 34 34 34 34 34
23 24 25 26 27 28 29 30 30 31 32 33 34 35 35 36 37 38 38 38 38 37 37 37 37 37 38 38 37 37 36 37 37 36 36 36 36 36 36 37 37 37 37
27 28 29 30 30 31 32 33 33 34 35 36 37 38 38 39 39 40 40 41 41 40 39 39 40 41 41 41 41 41 41 41 40 40 39 39 39 40 40 40 40 40 40
30 31 32 33 34 34 35 35 36 37 38 39 40 41 41 41 42 42 43 43 44 44 43 43 43 44 44 44 45 45 44 45 44 44 43 43 42 43 44 44 42 42 42
34 34 35 36 37 37 38 38 39 40 41 41 42 43 44 44 45 45 46 47 48 48 47 47 47 47 47 47 47 48 48 48 47 47 47 46 45 45 45 46 45 45 44
37 38 38 39 39 40 40 41 41 42 43 44 45 46 47 47 48 49 50 50 51 51 51 51 52 51 51 49 49 50 50 51 50 50 49 48 47 48 48 48 48 47 46
40 40 40 41 41 42 42 43 44 45 45 47 48 49 50 50 51 52 53 54 55 55 55 55 55 55 53 52 51 52 53 53 52 52 51 51 50 50 50 50 49 49 48
42 42 43 43 43 44 45 46 46 47 48 49 50 51 53 53 54 56 57 58 59 59 58 57 57 57 55 54 53 53 54 54 54 54 53 53 53 52 52 52 51 51 50
44 44 44 45 46 47 48 49 49 50 51 52 53 55 56 57 58 60 61 61 61 61 61 59 58 58 56 54 54 55 55 55 55 54 54 54 54 54 54 54 53 53 52
46 46 47 47 48 49 50 51 52 52 53 55 57 58 60 61 61 62 63 63 63 63 62 60 59 58 57 56 55 56 55 54 54 53 53 53 53 53 53 53 53 53 52
48 49 49 50 51 52 53 54 55 56 57 58 60 61 63 64 64 64 64 65 64 64 63 61 59 59 58 57 55 55 54 53 52 52 52 52 52 53 53 51 51 52 52
50 51 52 53 53 54 55 57 58 59 60 62 63 65 66 66 66 65 65 65 65 64 63 62 60 59 58 56 54 52 52 51 50 51 50 50 50 51 52 51 49 50 50
52 53 54 55 56 57 58 60 61 62 63 65 66 67 67 67 67 67 66 65 65 65 63 61 60 58 56 53 51 50 49 49 47 47 47 47 47 48 50 51 49 49 50
54 55 56 57 59 60 61 62 64 65 66 67 68 68 68 68 68 67 66 65 64 63 61 58 56 54 52 50 49 48 47 46 45 45 46 46 46 46 48 50 50 48 48
56 58 59 60 62 63 64 65 66 67 68 68 69 69 68 68 68 67 66 63 61 59 57 55 53 51 49 48 47 46 46 45 45 44 45 46 45 45 47 49 51 50 46
59 61 62 63 64 65 66 67 68 68 68 68 68 68 68 67 66 65 62 59 58 56 55 53 50 49 48 46 45 44 44 44 44 44 44 45 45 45 46 47 49 51 49
62 63 64 65 66 67 68 68 68 68 68 67 67 67 66 64 63 61 59 57 56 54 52 50 49 48 46 45 44 43 43 44 44 44 43 43 44 45 45 45 47 49 50

GEFSGL_500_meanwind_120.txt.gz
Wind_Speed
0 1 3 4 6 7 8 9 10 11 12 13 14 15 16 16 16 16 16 16 16 15 14 14 13 12 12 11 10 9 8 7 7 8 9 11 13 14 17 19 21 23 25
1 2 3 4 5 6 7 8 10 11 11 12 13 14 15 16 16 16 16 16 16 16 15 14 14 14 13 12 11 10 10 10 9 9 10 12 13 14 16 18 21 23 25
2 3 4 4 5 6 7 9 9 10 11 12 13 14 15 16 16 17 16 16 16 16 16 16 15 15 15 14 14 13 12 12 12 12 12 13 14 15 17 18 20 23 24
4 4 5 6 6 7 8 9 10 11 12 12 13 14 15 16 17 17 17 17 17 17 17 17 17 17 16 16 16 15 15 14 14 14 14 15 16 17 18 19 20 22 25
6 6 7 7 8 8 10 11 12 12 13 13 14 15 16 17 18 18 18 18 18 18 19 19 19 19 18 18 18 18 18 17 17 17 18 18 18 19 20 21 22 23 25
7 8 8 9 9 10 11 13 13 14 15 15 16 17 18 19 20 20 20 20 20 20 21 21 21 22 22 21 21 21 21 21 20 20 21 20 20 21 22 23 24 25 26
9 9 10 11 11 13 14 15 16 16 17 18 18 19 20 21 22 23 23 23 23 23 24 24 25 25 25 25 25 24 24 24 23 23 23 24 24 24 24 25 26 26 27
11 12 12 13 14 15 16 17 18 19 20 20 21 22 23 24 25 26 26 26 26 27 28 28 28 29 29 29 29 28 27 27 27 27 27 28 28 27 28 28 29 29 30
14 14 15 16 17 18 19 20 21 22 23 24 24 25 26 27 28 29 29 29 30 31 32 32 32 33 33 33 33 31 31 31 30 30 31 31 32 32 32 32 32 33 33
17 17 18 19 20 21 22 23 24 25 26 27 28 29 30 30 31 32 32 32 33 34 35 36 36 37 37 36 36 34 33 33 34 33 34 34 35 35 35 35 36 36 36
20 21 21 22 23 24 25 26 27 28 29 30 31 32 33 34 35 35 35 35 36 37 38 38 39 39 39 38 37 36 36 36 37 37 36 37 38 38 38 38 39 39 39
23 23 25 26 27 27 28 30 31 32 33 34 34 35 36 37 37 37 37 37 39 39 40 41 41 41 41 40 40 39 39 39 39 39 40 40 40 41 41 42 42 43 43
26 27 28 29 30 31 32 33 34 35 36 36 37 37 38 39 40 40 39 40 41 41 42 42 43 43 43 43 43 43 43 43 42 42 43 43 44 45 45 45 46 47 47
29 30 31 32 33 34 35 36 37 38 38 39 39 40 40 41 42 42 41 41 42 43 43 44 44 45 45 46 45 45 45 45 45 45 46 46 47 48 49 49 49 50 50
33 33 34 36 37 37 38 39 40 40 41 41 41 42 43 43 43 43 43 43 44 45 45 46 47 47 48 48 47 47 48 48 48 49 50 49 50 52 53 53 53 53 54
36 37 38 38 39 40 41 41 42 42 43 43 44 44 45 45 45 45 45 45 47 48 48 49 49 50 50 50 50 51 51 51 52 53 53 53 54 54 55 56 55 56 56
39 40 40 41 42 42 43 43 44 44 45 46 46 46 47 47 47 48 48 48 49 50 51 52 53 53 54 54 54 54 55 55 56 56 56 57 57 57 57 58 57 57 57
41 42 42 43 44 44 45 46 46 47 47 48 48 48 48 49 50 51 52 52 53 53 54 55 56 57 57 58 58 58 59 59 59 58 58 59 59 58 58 59 58 58 57
43 44 45 45 46 47 48 48 49 49 50 50 50 50 51 52 53 54 55 55 56 56 57 58 59 61 61 61 61 62 62 61 60 60 60 60 60 59 58 58 58 57 56
46 47 47 48 49 50 50 51 51 51 51 52 52 53 54 54 55 56 57 58 58 59 60 61 62 63 64 64 64 64 63 62 61 61 61 60 59 58 57 56 55 54 53
49 49 50 51 52 52 53 53 53 53 53 53 54 55 56 57 57 58 59 60 61 62 63 64 65 66 66 66 65 64 63 62 61 60 59 58 57 56 55 54 53 52 51
51 52 52 53 54 54 54 54 54 54 55 55 56 57 58 59 60 61 62 62 63 64 65 66 66 67 67 66 65 64 63 61 60 59 57 56 55 53 52 51 50 50 50
53 53 54 55 55 55 55 55 55 56 57 58 59 60 61 62 63 64 65 65 65 66 66 67 67 66 65 65 64 62 61 59 58 57 56 54 53 52 51 49 48 47 47
54 55 56 56 57 57 57 57 57 58 59 61 62 63 64 65 66 66 66 66 67 67 67 67 67 66 64 63 61 60 60 59 57 56 54 53 52 49 48 47 46 45 44
55 56 57 58 58 58 58 59 60 61 62 64 65 65 66 67 67 68 68 68 68 68 67 66 65 64 63 62 61 59 58 57 56 55 53 51 50 48 45 44 43 43 42
57 58 59 59 59 60 61 62 63 64 65 66 66 67 68 68 68 69 68 68 68 67 66 65 64 62 61 60 58 57 56 54 53 52 51 49 47 45 43 42 41 41 41

GEFSGL_500_meanwind_126.txt.gz
Wind_Speed
6 4 3 2 1 2 3 4 5 6 7 8 9 10 11 11 11 12 12 13 13 13 12 12 11 11 10 10 9 8 7 6 5 6 7 7 8 10 12 13 15 17 19
7 5 4 3 1 1 2 3 3 5 6 7 8 9 10 10 11 11 12 12 13 13 12 12 11 11 11 11 10 9 9 9 8 8 8 9 10 11 12 13 14 16 18
8 6 5 4 3 2 2 3 3 4 6 6 7 8 9 10 10 11 12 12 13 13 12 12 11 11 12 12 12 12 11 11 11 10 11 11 12 13 14 15 16 17 18
9 7 6 5 4 4 4 4 4 5 6 7 8 9 10 10 11 11 12 13 13 13 12 12 12 13 13 13 14 14 14 14 14 13 13 14 15 16 16 17 18 19 20
10 9 7 7 6 6 6 6 6 7 7 8 10 11 11 12 12 13 14 14 15 15 14 14 14 15 16 16 16 17 17 17 17 17 17 17 18 18 19 19 20 21 22
10 10 9 8 8 8 8 8 8 9 9 10 11 12 13 14 15 15 16 16 17 17 17 17 17 18 18 19 19 20 20 21 21 21 21 21 21 22 22 23 23 24 24
11 11 10 10 10 10 10 10 10 10 11 12 13 14 15 16 17 18 18 19 19 19 20 20 21 22 22 23 23 24 24 24 24 24 25 25 25 26 26 26 27 27 27
12 12 11 11 11 12 12 12 12 13 13 15 16 17 18 19 20 21 21 22 22 22 23 23 24 25 26 26 27 27 27 27 27 27 28 28 29 30 29 29 30 30 30
13 13 13 13 13 14 14 14 15 16 16 17 19 20 21 22 23 24 25 25 25 25 26 27 28 28 29 30 30 29 29 29 30 30 30 30 30 30 31 32 32 33 33
15 15 15 15 15 16 16 17 17 18 19 20 22 23 24 25 26 27 27 27 27 28 29 30 31 31 31 32 32 32 32 33 33 33 33 32 32 32 33 34 35 36 36
17 17 17 17 17 18 18 19 20 21 22 23 24 26 27 28 29 29 30 30 30 31 32 33 33 34 33 34 34 34 35 35 35 35 34 34 34 34 35 36 37 38 38
19 19 19 20 20 20 21 22 22 23 25 26 27 28 30 30 31 31 31 32 33 33 34 35 36 36 35 35 36 37 37 37 37 37 37 37 37 37 37 38 39 41 41
22 22 22 22 23 23 24 25 26 26 28 29 30 31 32 33 33 34 34 35 35 36 36 37 37 37 37 37 38 39 39 39 39 39 39 39 40 40 40 41 42 43 44
24 24 25 25 26 27 27 28 29 30 31 32 33 34 35 35 36 37 37 37 38 38 38 39 39 38 39 39 40 40 41 41 42 42 42 42 42 42 43 44 46 47 47
27 27 28 29 29 30 31 32 33 34 35 35 36 37 37 38 38 39 39 39 40 40 41 41 41 41 41 41 42 42 43 43 43 43 44 44 45 45 46 48 49 50 51
30 30 31 32 33 33 34 35 36 37 37 38 39 39 40 40 40 41 41 41 42 42 42 42 42 43 43 44 44 44 45 45 46 46 47 48 49 50 51 52 53 53 54
33 33 34 35 35 36 37 37 38 39 40 41 41 41 42 42 43 43 43 44 43 44 44 44 45 45 46 46 47 47 47 48 49 50 51 52 53 54 55 55 56 56 57
35 36 36 37 38 38 39 40 41 42 42 42 43 44 44 45 45 45 45 46 46 46 46 46 47 47 48 49 49 49 50 51 53 54 55 56 57 57 57 57 58 58 59
38 38 39 40 41 42 42 43 43 43 44 44 45 46 46 46 47 47 47 47 48 48 48 49 49 50 51 51 52 53 54 55 56 57 58 59 59 59 59 60 60 60 60
40 41 42 43 43 43 44 44 45 45 46 46 47 47 47 48 48 48 49 49 49 50 51 51 52 52 53 54 55 56 57 58 59 60 61 61 61 61 61 61 61 61 60
42 43 44 44 45 45 46 47 47 47 48 48 48 49 49 50 50 50 50 51 52 52 53 53 54 55 56 57 58 59 61 62 62 63 63 62 62 62 62 61 61 59 58
45 46 46 47 47 48 48 49 49 49 50 50 51 51 51 52 52 52 53 54 55 56 56 57 58 59 60 61 62 63 64 64 64 63 63 62 62 61 60 59 59 58 58
47 48 48 49 50 50 51 51 52 52 52 53 53 54 54 55 55 56 56 57 58 59 60 61 62 63 63 64 65 65 65 64 64 63 63 61 60 59 58 57 56 56 55
50 51 51 52 52 52 53 53 54 54 54 55 55 56 57 57 58 58 59 60 61 62 63 64 64 64 65 66 66 65 64 64 64 63 61 60 58 57 56 56 55 54 53
52 53 53 54 54 55 55 55 56 56 56 57 58 58 59 59 60 60 61 62 63 65 65 65 65 65 66 66 66 65 64 63 62 61 60 58 56 56 56 55 54 52 51
53 54 54 55 55 56 56 57 57 58 58 59 60 60 61 61 62 63 64 65 66 66 66 66 66 66 66 65 64 63 62 61 60 59 58 57 55 54 53 53 51 50 48

GEFSGL_500_meanwind_132.txt.gz
Wind_Speed
7 6 5 4 2 1 2 3 4 4 5 7 8 8 9 10 10 11 11 12 12 12 13 13 13 12 11 10 9 8 8 7 7 7 7 7 7 8 9 10 11 12 13
9 7 6 6 4 3 2 3 3 4 5 6 7 8 8 9 9 10 10 11 11 12 12 13 13 12 11 11 10 9 9 9 9 9 9 9 9 10 10 11 12 13 14
10 9 8 7 6 5 4 4 4 4 5 5 6 7 8 8 9 9 9 10 11 11 12 12 12 12 12 12 12 11 11 12 12 12 12 12 12 12 13 13 14 15 16
11 10 10 9 8 7 6 5 5 5 5 6 6 7 8 9 9 9 10 10 11 12 12 12 13 13 13 13 13 13 14 14 15 15 15 15 15 15 16 16 17 17 18
12 12 11 10 10 9 8 7 6 6 6 7 7 8 9 10 10 10 11 12 12 13 13 13 13 14 14 15 15 15 16 17 17 17 17 17 18 19 19 20 20 21 21
13 12 12 12 11 10 9 8 8 8 8 8 9 10 10 11 12 12 13 13 14 14 14 15 15 16 17 17 17 18 19 20 20 20 20 21 21 21 21 23 24 24 24
14 14 13 13 12 11 11 10 10 10 10 10 10 11 12 12 13 14 15 16 16 16 16 16 17 18 19 20 20 21 22 22 22 23 23 24 24 23 24 25 26 27 27
15 14 14 14 13 13 12 12 12 12 12 12 12 13 13 14 15 16 17 17 18 18 18 19 20 21 22 22 23 24 25 25 26 26 26 26 26 26 27 27 28 29 30
16 15 15 15 15 14 14 14 14 13 14 14 14 15 15 16 17 18 19 19 20 20 21 21 23 24 25 25 26 27 27 28 28 28 28 28 28 29 30 30 31 31 32
17 16 16 16 16 16 16 16 16 16 15 16 17 17 17 18 19 20 21 21 22 23 24 25 26 27 27 28 29 29 30 30 31 30 30 30 31 31 32 33 34 34 34
18 18 18 17 17 17 17 17 18 18 18 18 19 19 20 21 21 22 23 24 25 26 26 27 28 29 30 30 31 31 32 32 33 33 33 33 33 34 35 36 37 37 37
19 19 19 19 19 19 19 19 20 20 20 21 21 22 22 24 25 26 26 27 28 29 29 30 30 31 32 33 34 34 34 35 35 35 35 35 35 36 37 38 38 38 38
21 21 21 21 21 21 21 21 22 22 23 23 24 25 26 27 28 29 29 30 31 32 32 32 33 33 34 35 35 36 36 36 37 37 37 37 37 37 38 39 39 39 40
23 23 23 23 23 23 23 24 24 25 25 26 27 28 28 29 30 31 32 33 34 34 35 35 35 36 36 37 37 37 38 38 38 38 38 38 39 39 40 41 41 42 42
25 25 25 25 25 25 26 26 27 27 28 29 30 30 31 32 33 34 35 35 36 37 37 37 37 38 38 38 39 39 40 40 40 40 40 41 41 42 43 44 45 45 46
27 27 27 27 28 28 28 29 29 30 31 32 32 33 34 35 36 36 37 38 39 39 39 39 40 40 40 40 41 41 42 42 42 42 43 43 44 45 46 47 48 49 50
29 29 29 30 30 30 31 31 32 33 34 34 35 36 36 37 38 39 40 40 41 41 41 42 42 42 43 43 43 44 44 44 44 45 46 47 48 49 50 51 52 53 54
31 31 31 32 32 33 33 34 35 35 36 37 38 38 39 40 41 42 42 43 43 43 43 44 44 45 45 46 46 46 46 47 47 48 49 50 51 53 54 55 56 57 57
33 33 34 34 35 36 36 37 38 38 39 39 40 41 42 43 43 44 44 44 45 45 46 46 47 48 48 48 48 49 49 50 51 52 53 53 55 56 57 58 59 60 60
35 35 36 37 38 38 39 40 40 41 41 42 43 44 45 45 45 46 46 46 47 48 49 49 50 50 50 51 51 51 52 53 54 55 56 57 59 60 61 61 62 62 62
37 38 39 39 40 41 42 42 43 44 44 45 46 46 47 48 48 48 48 49 50 50 51 51 52 52 53 53 54 54 55 57 58 59 60 61 62 62 62 62 62 62 62
39 40 41 42 43 43 44 45 46 47 47 48 49 49 50 50 50 51 51 52 52 52 53 53 53 54 54 55 56 57 58 59 60 61 62 62 62 62 62 62 62 62 62
42 43 44 45 45 46 47 48 49 50 50 51 52 52 52 52 52 53 53 54 54 55 55 55 56 56 57 58 59 60 61 62 63 63 63 63 63 63 62 62 62 62 61
45 45 46 47 48 49 50 50 51 52 53 53 53 54 54 54 54 55 55 56 56 57 57 58 58 59 60 61 62 63 63 64 64 64 63 63 63 63 63 63 63 62 61
48 48 49 50 51 51 52 52 53 54 54 55 55 55 56 56 57 57 57 57 58 59 59 60 61 62 62 63 64 64 65 65 64 64 64 64 64 63 63 63 62 60 58
50 51 52 52 53 53 54 54 55 55 55 56 56 57 57 58 58 59 59 60 60 61 61 62 63 64 64 64 64 65 64 64 64 64 64 65 64 64 63 61 59 57 55

GEFSGL_500_meanwind_138.txt.gz
Wind_Speed
11 9 8 6 5 3 2 1 1 2 4 4 4 5 6 6 7 8 8 9 9 9 9 9 9 9 8 8 7 6 5 5 4 3 3 4 4 5 5 6 7 8 9
12 10 9 8 6 4 3 2 1 0 1 2 3 4 4 5 6 7 7 8 8 7 7 8 8 8 8 7 7 7 6 5 5 5 5 5 6 7 8 8 9 10 11
13 11 10 9 8 6 4 3 2 2 1 1 1 2 3 4 5 6 6 6 7 7 7 7 7 7 7 7 8 7 7 7 7 7 7 8 9 9 10 11 12 13 13
14 12 11 11 9 8 6 5 4 3 3 2 2 2 2 3 4 5 5 6 6 7 7 7 7 7 7 8 9 9 9 9 10 10 9 10 11 12 12 14 15 16 17
15 14 12 11 11 9 8 6 5 4 4 4 3 3 3 4 4 5 6 6 7 7 7 7 7 8 9 10 10 11 11 12 12 12 13 13 14 14 15 17 18 18 19
15 14 14 13 12 11 10 8 7 7 6 5 5 5 5 5 6 7 7 8 8 8 9 8 9 10 11 12 12 13 13 14 14 15 15 15 16 17 18 20 21 21 22
17 16 15 14 13 13 12 10 10 9 8 8 7 7 7 7 8 8 9 9 10 10 10 10 11 12 13 14 14 15 15 16 16 17 18 19 19 19 20 21 22 23 25
18 17 16 15 15 14 13 12 11 11 10 10 10 9 9 9 10 10 10 11 12 12 12 12 13 14 15 16 16 17 18 18 19 20 21 21 21 22 22 23 24 25 26
18 18 17 16 16 15 14 14 13 13 12 12 12 11 11 11 11 12 13 13 14 14 15 15 16 17 18 18 19 20 20 21 22 23 24 24 24 24 24 25 26 27 28
19 18 18 17 17 16 16 15 15 15 14 14 14 14 14 14 14 14 15 16 16 17 17 18 19 19 20 21 21 22 23 24 25 26 26 26 27 27 28 28 28 29 30
19 18 19 18 18 17 17 17 16 16 16 16 16 16 16 16 17 17 17 18 18 19 20 21 22 22 23 23 23 24 25 26 27 28 28 28 29 30 31 31 32 32 33
20 19 19 19 19 18 18 18 18 18 18 18 18 18 18 19 19 19 20 20 21 22 23 24 24 25 25 26 26 27 28 28 29 30 30 31 31 32 32 33 34 35 35
20 20 20 20 20 20 20 20 20 20 19 20 20 20 21 21 21 22 22 23 24 25 25 26 26 27 28 29 29 30 30 31 32 33 33 33 34 34 35 36 37 37 38
21 21 21 22 22 21 21 21 21 21 21 22 22 22 23 24 24 24 25 26 27 28 28 28 29 30 31 32 32 33 33 33 34 35 36 36 37 38 38 39 39 40 41
23 23 23 23 23 23 24 24 24 24 24 24 24 25 26 26 27 28 29 29 30 30 31 32 33 33 34 35 35 36 36 36 37 38 39 40 40 41 41 42 42 43 44
25 25 25 25 26 26 26 26 26 26 26 26 27 27 28 29 30 31 31 32 33 34 34 35 36 36 37 38 38 38 39 39 40 41 42 43 43 44 44 45 46 47 48
26 27 27 28 28 28 28 28 28 28 28 29 30 30 31 32 33 33 34 35 36 36 37 38 38 39 40 40 41 41 41 42 43 44 45 45 46 47 47 48 49 50 51
28 29 29 29 29 29 30 30 30 31 31 32 33 33 34 35 35 36 36 37 38 39 40 41 41 42 43 43 44 44 45 46 46 47 48 48 49 50 51 52 53 53 54
30 30 31 30 31 31 31 32 33 33 34 35 36 36 37 38 38 38 39 40 41 42 43 43 44 45 46 46 47 47 48 48 49 50 51 51 52 53 54 55 55 56 57
31 32 32 32 32 33 34 34 35 36 37 38 39 40 41 41 41 42 42 43 44 45 46 46 47 48 49 49 49 50 50 51 52 53 53 54 55 56 56 57 58 58 59
33 33 34 34 35 36 36 37 38 39 40 40 41 42 43 44 44 45 45 46 47 48 48 49 50 50 51 52 52 53 53 54 54 55 55 56 57 57 58 59 60 61 61
35 35 36 37 37 38 39 40 41 42 42 43 44 45 46 47 47 47 48 49 50 50 51 52 52 53 53 54 55 56 56 57 57 58 58 59 59 60 61 62 62 62 62
38 39 39 40 41 41 42 43 44 44 45 46 47 48 49 49 50 50 51 52 53 53 53 55 55 55 56 57 58 58 59 59 59 60 60 61 61 62 63 63 63 63 62
40 41 42 42 43 44 44 45 46 47 48 49 49 50 51 52 52 53 54 54 55 55 56 57 58 58 59 60 60 61 61 61 61 61 62 63 63 64 64 63 63 63 63
43 43 44 44 45 46 47 48 49 50 50 51 52 52 53 54 55 55 56 56 57 58 58 59 59 60 61 62 62 62 62 62 62 63 63 64 64 63 63 63 63 62 62
45 46 46 47 48 48 49 50 51 52 53 53 54 54 55 55 56 56 57 58 58 58 59 60 61 61 62 62 62 63 62 62 63 63 63 63 63 63 63 62 62 62 61

GEFSGL_500_meanwind_144.txt.gz
Wind_Speed
12 11 10 8 7 5 4 3 2 2 1 1 1 2 3 4 4 5 6 6 6 7 6 6 6 7 7 6 6 5 4 4 4 3 3 5 6 6 7 6 7 7 8
14 12 11 10 8 6 5 4 3 3 2 1 0 0 1 2 3 3 4 4 4 5 5 5 6 6 6 6 6 5 5 5 5 5 6 6 6 7 8 7 8 9 10
15 13 12 11 10 8 6 5 5 4 4 3 2 2 1 1 2 2 3 3 3 4 4 5 5 5 5 5 6 6 6 6 7 7 8 8 8 8 8 8 10 11 11
16 15 13 12 11 9 8 7 7 6 6 5 4 4 3 3 3 3 3 3 3 3 4 4 4 5 5 5 6 6 7 8 9 9 10 10 10 10 10 11 13 14 14
17 16 15 14 12 11 10 9 9 8 8 8 7 6 6 5 5 5 5 5 5 5 5 5 5 6 6 7 7 8 9 10 11 11 12 13 13 13 14 14 15 16 18
18 17 16 15 14 13 12 11 10 9 9 9 9 9 8 8 7 7 7 7 7 7 7 7 7 8 8 9 10 10 11 12 13 14 14 15 16 16 17 17 18 19 20
18 18 17 16 15 15 14 13 12 11 11 10 10 10 10 10 10 9 9 9 9 9 9 9 9 10 10 11 12 13 13 13 15 15 16 17 17 18 19 19 20 21 22
18 19 18 17 17 16 15 15 14 13 13 12 12 12 12 12 11 11 11 11 11 10 11 11 11 12 12 13 14 15 15 16 17 17 18 19 19 20 21 22 23 24 24
18 19 19 19 18 18 17 17 16 16 15 15 14 14 13 13 13 13 13 13 13 13 13 13 14 14 15 16 16 17 17 18 19 19 21 21 22 23 24 24 25 26 27
20 20 19 19 19 18 18 18 18 18 18 17 16 16 15 15 15 15 15 15 15 15 15 16 16 17 17 18 19 20 20 20 21 22 23 24 25 26 26 27 28 28 29
21 20 20 20 20 19 19 19 18 19 19 19 18 18 18 17 17 17 17 17 17 18 18 18 19 19 20 21 22 22 22 23 24 25 26 27 28 28 29 30 31 31 31
21 21 20 21 20 20 20 20 20 19 20 20 20 20 19 19 19 20 20 20 20 20 21 21 22 23 23 24 24 25 25 26 27 28 29 30 31 31 32 33 34 34 35
21 21 21 21 21 21 20 20 20 20 21 21 21 21 21 21 22 22 22 22 22 23 24 25 25 26 26 26 27 27 28 29 30 31 32 33 33 34 35 36 37 38 39
22 22 22 22 22 22 22 22 22 22 22 22 23 23 24 24 24 24 24 24 25 26 27 27 28 28 29 29 29 30 31 32 34 34 35 36 37 38 39 39 40 40 41
22 23 23 23 23 23 23 24 24 24 25 25 25 25 26 26 26 26 27 27 27 28 29 30 30 31 31 32 33 34 35 36 37 37 38 39 40 41 42 42 43 43 44
24 24 24 25 25 26 26 26 26 27 27 27 27 28 28 29 29 29 29 30 30 31 32 33 34 34 35 35 36 37 38 39 40 41 42 43 43 44 44 45 46 47 47
25 25 26 27 27 28 29 29 29 30 30 30 30 31 31 31 32 32 33 33 34 34 35 36 37 37 38 39 40 41 42 43 43 44 45 46 46 47 48 48 49 50 50
27 27 28 28 29 30 30 31 31 32 32 32 33 33 34 34 35 36 36 37 37 38 39 39 40 41 41 42 43 44 45 46 47 47 48 49 49 50 51 51 52 53 53
29 29 30 31 31 31 32 32 33 33 34 34 35 36 36 37 37 38 39 40 40 41 42 42 43 44 45 46 46 47 48 49 50 50 51 51 52 53 54 55 55 56 56
31 31 31 32 32 33 34 34 35 35 36 36 37 38 39 40 40 41 41 42 43 43 45 45 46 47 47 48 49 50 51 51 52 52 53 54 55 56 57 58 58 59 60
32 33 33 34 34 34 35 36 37 38 38 39 40 41 41 42 42 43 44 44 45 46 47 48 49 50 50 51 52 52 53 54 54 55 56 57 57 58 59 60 61 61 62
34 34 35 36 36 37 37 38 39 40 40 41 42 42 43 44 44 45 46 47 47 48 49 50 51 52 53 54 54 55 56 56 57 58 59 59 60 61 61 61 61 62 63
35 35 36 37 38 39 40 40 41 41 42 43 44 44 45 46 47 48 49 50 50 51 51 52 53 54 55 56 57 57 58 59 59 60 61 61 62 62 62 62 62 63 63
37 37 38 39 40 41 41 42 43 43 44 45 46 46 47 48 49 50 51 52 52 53 54 55 56 57 58 59 59 60 61 61 62 62 62 62 62 63 63 63 63 63 63
40 40 41 41 42 43 43 44 45 45 46 47 48 49 49 50 51 52 53 54 55 56 57 58 59 60 60 61 61 61 62 62 63 63 63 63 63 63 63 63 63 63 62
43 43 44 44 45 45 46 47 47 48 49 50 50 51 52 52 53 54 56 57 58 58 59 60 61 61 61 61 62 62 62 63 63 64 64 64 64 63 63 62 62 61 61

GEFSGL_500_meanwind_150.txt.gz
Wind_Speed
15 14 13 12 10 9 7 6 5 4 3 2 1 1 2 3 4 4 5 5 6 6 5 5 5 5 4 4 4 3 3 2 2 2 2 3 3 4 4 5 6 6 7
16 15 14 13 11 10 9 8 7 5 4 3 2 1 0 1 2 3 3 4 4 4 4 3 3 4 3 3 3 3 3 3 3 3 3 4 5 5 5 6 6 7 8
16 16 15 14 12 11 10 9 8 7 6 5 3 2 2 1 2 2 3 3 3 3 3 2 2 2 3 2 2 3 3 4 5 4 5 6 7 7 8 8 8 9 10
17 16 16 15 14 12 11 10 9 8 7 7 6 5 4 3 3 3 3 3 3 4 3 3 3 3 3 3 4 4 5 5 6 6 7 8 9 10 10 10 11 11 12
18 18 17 16 15 14 12 11 11 10 9 8 8 7 6 5 5 5 5 5 5 5 5 5 5 5 5 5 5 6 6 7 8 9 9 10 11 11 12 12 13 13 14
19 19 18 17 16 15 13 12 12 11 10 10 9 9 8 8 8 7 7 7 6 6 6 6 6 7 7 8 8 8 9 10 10 11 11 12 13 13 14 14 15 15 16
19 19 19 18 17 16 15 14 14 13 12 11 11 11 11 10 10 10 9 9 9 8 8 8 9 9 10 10 10 10 11 12 13 13 14 15 15 16 16 17 17 18 19
19 19 18 19 18 17 16 16 15 14 14 13 12 12 12 12 12 11 11 11 11 11 11 11 11 11 12 12 12 13 14 14 15 16 16 17 17 18 19 19 20 20 21
18 18 18 19 19 18 18 17 16 16 15 15 14 14 13 13 13 13 13 13 13 13 13 13 13 14 14 14 15 15 16 16 17 18 19 19 20 21 21 22 23 24 24
19 19 18 18 18 18 17 17 17 17 16 16 16 16 16 15 15 15 16 15 16 16 16 16 16 17 17 17 17 18 18 19 19 20 21 22 23 23 24 25 26 27 28
19 19 18 18 18 18 18 18 18 18 18 18 18 18 18 18 17 17 17 17 17 18 18 19 19 19 20 20 21 21 21 22 22 23 24 25 26 27 27 28 29 30 31
20 20 19 19 19 19 19 18 18 18 18 18 18 18 18 19 19 19 19 20 20 20 21 21 22 22 23 23 23 24 24 25 26 26 27 28 29 29 30 31 32 33 34
20 20 20 20 20 20 20 20 20 20 20 20 20 20 20 20 20 21 22 22 23 23 23 24 24 25 26 26 26 27 27 28 29 30 30 31 32 33 34 34 35 36 37
20 20 20 20 20 21 21 21 20 21 21 21 21 22 22 22 22 22 23 23 24 25 25 26 27 27 28 28 29 29 30 31 32 33 33 34 35 36 36 37 38 39 40
20 20 20 20 20 20 20 21 21 21 22 22 23 23 23 24 24 24 24 24 25 26 27 28 28 29 30 30 31 32 33 34 35 36 37 38 38 39 39 40 41 42 44
21 21 22 22 22 22 22 22 23 23 24 24 25 25 25 26 26 26 26 27 27 28 29 29 30 31 32 33 34 35 36 37 37 38 39 40 41 41 42 43 44 45 47
22 23 23 24 24 24 24 24 25 25 25 26 27 27 27 28 28 29 29 30 30 31 31 32 33 34 35 36 36 37 38 39 40 41 42 43 43 44 45 46 47 48 49
23 24 25 25 25 26 26 26 27 27 28 28 28 29 29 30 30 31 32 32 32 33 34 34 35 36 37 38 38 39 40 41 42 43 44 45 46 47 48 49 50 51 52
24 24 25 26 27 27 28 28 29 29 30 30 31 32 32 33 33 33 34 35 35 36 37 37 38 39 39 40 41 42 43 44 45 46 47 48 49 50 51 52 53 54 55
25 26 27 28 29 30 31 31 32 32 32 33 34 34 35 35 36 36 37 38 39 39 40 40 41 42 42 43 44 45 45 46 47 48 49 50 51 53 54 55 56 57 57
27 28 28 29 30 31 32 33 33 34 35 35 36 37 37 38 38 39 40 41 41 42 42 43 44 45 45 46 47 48 48 49 50 51 52 53 54 55 56 57 57 58 59
28 29 29 30 31 32 33 33 34 35 36 37 38 38 39 40 41 41 42 43 44 44 45 45 46 47 48 49 49 50 51 53 54 55 56 56 57 57 58 58 59 59 60
29 30 30 31 32 33 34 35 36 37 37 39 40 40 41 42 42 43 44 45 45 47 48 48 49 49 50 51 52 53 54 56 57 58 59 60 60 60 60 60 60 61 61
31 31 32 33 34 35 36 37 38 39 40 40 41 42 43 43 44 45 46 47 48 49 50 51 51 52 53 54 55 56 57 58 59 60 61 62 62 62 62 63 62 62 61
32 33 34 35 36 37 38 39 40 41 42 43 43 44 45 45 46 47 48 49 50 51 52 53 54 54 55 57 58 59 59 60 61 62 62 62 62 62 63 62 62 61 60
34 35 36 36 37 38 39 40 41 42 43 44 45 46 47 47 48 50 51 52 53 54 55 56 56 57 58 59 60 60 60 61 62 62 62 62 62 63 62 62 61 60 59

GEFSGL_500_meanwind_156.txt.gz
Wind_Speed
11 10 11 11 10 8 7 5 4 3 2 1 0 1 1 2 3 3 4 4 5 5 4 4 4 4 3 3 3 3 4 4 4 4 4 5 5 6 6 6 7 6 6
12 11 12 12 11 10 8 7 6 5 4 3 2 1 1 1 2 2 3 3 4 4 3 3 3 3 3 3 3 3 4 4 4 4 5 5 6 6 7 7 7 8 8
13 12 12 13 13 11 10 9 8 7 6 5 4 4 3 3 3 3 3 3 3 4 4 4 4 3 3 3 3 4 4 5 5 5 6 6 6 7 8 8 9 9 10
14 13 13 14 13 12 11 10 9 9 8 7 6 6 5 5 5 4 4 4 4 5 5 5 5 4 4 4 5 5 5 6 6 7 8 8 8 8 9 10 10 11 11
15 14 14 14 14 13 12 11 11 10 10 9 8 7 7 7 7 6 6 6 6 6 6 6 6 6 6 6 6 7 7 8 8 9 9 10 10 11 11 12 12 12 13
15 15 15 15 15 14 13 13 12 11 11 11 10 9 9 9 8 8 8 8 8 8 8 8 8 8 7 7 8 8 9 9 10 11 11 12 13 13 14 14 14 14 15
16 15 15 15 16 15 14 14 13 13 12 12 12 11 11 11 11 10 10 10 10 9 10 9 9 9 9 10 10 10 11 12 13 14 14 15 15 16 16 16 17 17 18
17 16 15 14 15 15 16 15 14 14 13 13 12 12 12 12 12 12 12 12 11 11 11 11 11 11 12 12 13 13 14 14 15 16 16 17 17 18 18 18 19 20 20
17 16 15 15 15 15 15 16 15 15 14 14 14 14 14 14 14 14 14 14 13 13 14 13 14 14 15 15 16 16 16 17 17 18 18 19 20 21 21 22 22 23 24
17 17 17 16 15 15 15 15 15 14 15 15 15 14 14 14 15 15 15 15 15 15 16 16 17 17 18 18 18 19 19 19 20 21 21 22 23 23 24 25 25 26 27
17 17 18 17 15 15 16 16 16 16 16 16 15 15 15 15 15 16 16 16 16 17 17 18 19 20 20 21 21 21 22 22 23 23 24 25 25 26 26 27 28 29 30
18 18 18 18 17 17 16 16 17 17 17 17 16 16 16 16 17 17 18 18 18 19 20 20 21 22 23 23 23 24 24 25 25 26 26 27 28 29 29 30 31 32 33
17 17 17 18 18 18 18 18 18 18 18 18 18 17 17 18 19 19 19 20 21 21 22 23 23 23 24 25 26 26 27 27 28 29 29 30 31 31 32 33 33 34 35
16 17 17 17 18 18 18 18 18 19 19 20 19 19 20 21 21 21 21 22 23 23 24 24 24 25 26 27 28 28 29 29 30 31 32 32 33 34 35 35 36 37 38
17 17 17 18 18 18 19 19 20 20 21 21 21 21 21 22 22 23 23 24 25 26 26 26 27 28 28 29 30 30 31 32 33 34 34 35 36 37 37 38 39 40 41
17 17 18 18 18 19 19 19 20 21 22 21 22 22 23 23 24 25 25 26 27 28 29 29 30 30 31 32 32 32 33 34 35 36 36 38 39 40 40 41 42 43 44
17 18 18 19 19 20 20 20 21 22 22 23 24 25 25 26 26 27 28 29 30 30 31 31 32 33 34 34 35 35 36 37 38 38 39 40 41 42 43 44 44 45 46
18 18 19 20 20 21 21 22 22 23 24 25 25 26 27 27 28 29 30 32 32 33 33 34 35 36 36 37 38 38 39 40 40 41 41 42 43 44 45 46 47 48 49
19 20 21 22 22 22 23 24 25 26 26 27 27 28 29 30 32 32 33 34 35 36 36 37 37 38 39 39 40 40 41 42 43 44 45 45 46 47 48 49 51 52 53
21 22 22 23 24 24 26 27 28 29 29 30 30 31 32 33 34 34 35 36 36 37 38 39 39 40 41 42 43 43 44 45 46 47 47 48 49 51 52 53 54 55 56
22 23 23 24 25 25 26 27 29 30 30 31 32 33 35 36 36 37 38 38 39 40 40 41 41 42 43 44 45 46 47 47 48 49 50 51 52 53 54 55 56 56 57
24 24 25 26 27 27 28 28 29 31 32 33 34 35 36 37 38 39 39 40 41 42 42 43 44 45 46 47 48 48 49 50 51 52 53 54 55 56 56 57 58 58 58
25 25 26 27 28 29 29 30 31 32 33 34 35 36 37 39 39 40 41 42 43 44 45 46 47 48 48 49 50 51 52 53 54 55 56 56 57 58 58 59 59 60 60
27 28 28 29 29 30 31 32 33 34 35 36 37 38 39 40 41 42 43 44 45 46 47 48 49 50 51 52 53 54 54 55 56 57 58 58 58 59 60 61 61 61 61
30 30 30 31 32 32 33 34 35 36 37 38 39 40 40 41 42 43 44 45 46 47 48 49 50 51 52 53 54 55 56 57 58 59 60 60 61 61 62 62 62 62 62
31 32 32 33 33 34 35 35 36 37 38 39 40 41 42 42 43 44 45 46 47 48 49 49 50 52 53 54 55 56 57 58 59 60 61 61 61 62 62 61 61 61 60

GEFSGL_500_meanwind_162.txt.gz
Wind_Speed
14 14 13 12 11 10 9 8 7 6 5 3 3 2 2 2 2 2 3 3 3 2 2 1 1 1 1 1 1 1 1 1 2 3 3 4 4 4 4 4 4 4 5
14 14 13 13 12 12 11 10 9 8 7 5 4 3 2 1 1 0 1 1 2 2 2 2 1 1 1 1 1 1 1 2 2 3 4 5 5 5 6 6 6 6 6
15 14 13 13 13 13 12 12 11 10 8 7 6 5 4 3 2 2 2 2 2 3 3 3 3 3 2 2 2 2 3 3 4 4 5 6 6 7 7 7 7 8 8
16 15 14 14 13 14 14 13 12 11 10 9 8 7 6 5 5 4 4 4 4 4 4 3 4 4 4 3 4 4 4 5 5 6 6 6 7 8 8 9 9 10 11
17 16 15 15 14 14 14 14 13 13 12 11 10 9 8 7 7 7 7 6 6 5 5 5 5 6 5 5 6 6 6 7 8 8 8 9 9 10 11 11 12 12 13
17 17 16 15 15 14 14 14 14 13 13 12 11 10 9 8 8 9 9 9 8 8 8 7 7 7 7 8 8 9 9 9 10 10 11 11 12 13 13 14 14 15 16
17 17 16 16 16 15 14 14 14 14 13 12 12 12 11 10 10 10 10 10 10 10 9 9 9 9 10 10 10 11 11 12 12 13 13 14 15 15 16 16 17 17 18
17 18 18 17 16 15 15 14 14 13 13 13 13 13 13 12 12 12 11 11 12 11 11 11 11 12 12 12 12 12 13 14 15 16 16 17 17 18 19 19 19 20 21
17 17 18 18 17 16 16 15 15 15 14 13 13 13 13 14 13 13 13 13 14 14 14 13 14 13 14 14 15 16 16 17 18 18 19 20 20 21 21 22 23 23 24
18 18 17 18 17 17 17 17 16 16 15 15 14 14 14 14 14 14 14 14 14 14 15 15 16 16 17 17 17 18 19 20 20 21 22 23 23 24 24 24 25 26 26
18 18 18 18 18 18 17 17 17 16 16 16 16 15 15 15 15 15 15 15 15 16 16 16 17 18 19 20 20 20 21 22 23 24 25 25 26 26 27 27 28 28 29
19 19 19 20 19 19 19 18 17 17 17 17 17 16 16 17 17 16 16 16 16 17 18 18 19 19 20 21 22 23 23 24 25 26 27 27 28 29 29 30 30 31 32
19 19 19 19 19 19 19 19 18 17 17 17 18 18 18 18 18 18 18 19 19 20 20 21 21 22 23 23 24 24 25 26 26 27 28 29 30 31 32 33 33 34 34
18 19 19 19 19 19 19 19 19 19 18 18 18 19 19 20 20 21 22 22 22 23 24 24 24 24 25 26 27 28 28 28 29 29 30 31 32 32 34 34 35 36 37
18 19 19 19 19 18 18 18 18 19 19 19 20 20 21 21 22 23 23 24 24 25 26 26 26 27 28 28 29 30 30 31 32 32 33 33 34 35 36 37 38 39 40
18 17 18 18 18 18 18 19 19 19 19 20 21 21 21 22 23 24 25 26 26 27 28 28 29 30 31 31 32 32 33 34 35 35 36 37 37 38 39 40 41 42 43
17 17 18 18 19 19 19 19 20 20 20 20 21 21 22 23 24 25 26 27 28 28 29 30 30 31 32 33 34 35 36 37 38 38 39 40 41 42 43 43 44 45 46
18 18 18 18 18 19 20 20 21 21 22 23 23 24 24 25 26 27 28 29 29 29 30 31 32 32 33 35 36 37 38 39 40 41 42 43 44 45 46 46 47 48 49
19 19 19 20 20 20 21 22 22 23 24 25 25 26 27 27 28 29 29 29 30 31 31 32 33 35 36 37 38 39 39 40 42 43 44 45 47 48 48 49 50 51 52
20 20 20 21 21 21 22 23 23 24 25 26 26 27 28 29 30 30 31 32 33 33 34 35 36 37 38 39 40 41 42 43 44 46 47 48 49 50 51 52 53 54 54
21 21 21 22 22 22 23 23 24 26 27 27 28 30 31 31 32 32 33 34 35 35 37 38 39 40 41 42 43 44 45 46 47 48 49 50 51 53 53 54 55 56 57
22 22 23 23 24 24 24 25 26 27 28 29 30 31 31 32 32 33 34 35 36 38 39 40 41 42 43 44 45 46 48 49 50 51 52 53 54 54 55 56 56 58 59
23 23 24 24 25 25 26 26 27 28 29 30 31 31 32 33 34 35 36 37 39 40 41 42 43 44 45 46 47 49 50 51 52 53 54 55 56 56 57 58 59 60 61
24 24 25 25 26 26 27 28 28 29 29 31 31 32 34 35 36 37 38 39 40 41 42 43 44 45 46 48 49 50 52 53 54 55 56 56 57 58 58 59 60 61 62
25 26 26 27 27 28 29 29 30 31 32 33 34 35 36 37 38 38 39 40 42 43 44 45 46 47 48 50 51 52 53 55 56 56 57 57 58 59 60 61 62 63 64
27 27 27 28 29 29 30 31 32 32 33 34 36 37 38 39 39 40 41 42 44 45 46 47 48 49 50 51 53 54 55 55 56 57 58 58 59 60 61 62 63 64 64